Wetterdaten: aktuell Samstag, 02.12.2023 23:20
Datum Zeit Temp. I. Temp. 2m Temp. 5cm Temp. -10cm Feuchte I. Feuchte 2m Luftdruck Regen Wind Richtung Richtung Taupunkt Windchill Windben
02.12.2023 23:20 14,8 C -4,9 C 0,8 C 3,6 C 53 % 88 % 1022,0 hPa 0,0 l/m 0,0 km/h (0 Bft) W-NW 292 -6,6 C -4,9 C 0,0 km/h (0 Bft)
02.12.2023 23:18 14,8 C -4,9 C 0,8 C 3,5 C 53 % 88 % 1022,0 hPa 0,0 l/m 0,0 km/h (0 Bft) W-NW 292 -6,6 C -4,9 C 0,0 km/h (0 Bft)
02.12.2023 23:16 14,8 C -5,0 C 0,8 C 3,5 C 53 % 88 % 1022,0 hPa 0,0 l/m 0,0 km/h (0 Bft) W-NW 292 -6,7 C -5,0 C 0,0 km/h (0 Bft)
02.12.2023 23:14 15,0 C -5,0 C 0,8 C 3,6 C 53 % 88 % 1022,1 hPa 0,0 l/m 0,0 km/h (0 Bft) W-NW 292 -6,7 C -5,0 C 0,0 km/h (0 Bft)
02.12.2023 23:12 14,8 C -5,0 C 0,8 C 3,6 C 53 % 88 % 1022,1 hPa 0,0 l/m 0,0 km/h (0 Bft) W-NW 292 -6,7 C -5,0 C 0,0 km/h (0 Bft)
02.12.2023 23:10 15,0 C -5,0 C 0,8 C 3,6 C 53 % 88 % 1022,1 hPa 0,0 l/m 0,0 km/h (0 Bft) W-NW 292 -6,7 C -5,0 C 0,0 km/h (0 Bft)
02.12.2023 23:08 15,0 C -5,0 C 0,8 C 3,6 C 53 % 88 % 1022,1 hPa 0,0 l/m 0,0 km/h (0 Bft) W-NW 292 -6,7 C -5,0 C 0,0 km/h (0 Bft)
02.12.2023 23:06 15,0 C -5,0 C 0,8 C 3,6 C 53 % 88 % 1022,1 hPa 0,0 l/m 0,0 km/h (0 Bft) W-NW 292 -6,7 C -5,0 C 0,0 km/h (0 Bft)
02.12.2023 23:04 15,0 C -5,0 C 0,8 C 3,6 C 53 % 88 % 1022,1 hPa 0,0 l/m 0,0 km/h (0 Bft) W-NW 292 -6,7 C -5,0 C 0,0 km/h (0 Bft)
02.12.2023 23:02 15,0 C -5,0 C 0,8 C 3,6 C 53 % 88 % 1022,1 hPa 0,0 l/m 0,0 km/h (0 Bft) W-NW 292 -6,7 C -5,0 C 0,0 km/h (0 Bft)
02.12.2023 23:00 15,0 C -5,0 C 0,8 C 3,6 C 53 % 88 % 1022,1 hPa 0,0 l/m 0,0 km/h (0 Bft) W-NW 292 -6,7 C -5,0 C 0,0 km/h (0 Bft)
02.12.2023 22:58 15,0 C -5,0 C 0,8 C 3,6 C 53 % 88 % 1022,1 hPa 0,0 l/m 0,0 km/h (0 Bft) W-NW 292 -6,7 C -5,0 C 0,0 km/h (0 Bft)
02.12.2023 22:56 15,0 C -5,0 C 0,8 C 3,6 C 53 % 88 % 1022,1 hPa 0,0 l/m 0,0 km/h (0 Bft) W-NW 292 -6,7 C -5,0 C 0,0 km/h (0 Bft)
02.12.2023 22:54 15,0 C -5,0 C 0,8 C 3,6 C 53 % 88 % 1021,8 hPa 0,0 l/m 0,0 km/h (0 Bft) W-NW 292 -6,7 C -5,0 C 0,0 km/h (0 Bft)
02.12.2023 22:52 15,0 C -5,0 C 0,8 C 3,6 C 53 % 88 % 1021,8 hPa 0,0 l/m 0,0 km/h (0 Bft) W-NW 292 -6,7 C -5,0 C 0,0 km/h (0 Bft)
02.12.2023 22:50 15,0 C -5,0 C 0,7 C 3,6 C 53 % 88 % 1021,8 hPa 0,0 l/m 0,0 km/h (0 Bft) W-NW 292 -6,7 C -5,0 C 0,0 km/h (0 Bft)
02.12.2023 22:48 15,0 C -5,0 C 0,8 C 3,6 C 53 % 88 % 1021,8 hPa 0,0 l/m 0,0 km/h (0 Bft) W-NW 292 -6,7 C -5,0 C 0,0 km/h (0 Bft)
02.12.2023 22:45 15,0 C -5,0 C 0,7 C 3,6 C 53 % 88 % 1021,8 hPa 0,0 l/m 0,0 km/h (0 Bft) W-NW 292 -6,7 C -5,0 C 0,0 km/h (0 Bft)
02.12.2023 22:40 15,0 C -5,0 C 0,7 C 3,6 C 53 % 88 % 1021,8 hPa 0,0 l/m 0,0 km/h (0 Bft) W-NW 292 -6,7 C -5,0 C 0,0 km/h (0 Bft)
02.12.2023 22:35 14,8 C -5,0 C 0,7 C 3,6 C 53 % 88 % 1021,8 hPa 0,0 l/m 0,0 km/h (0 Bft) W-NW 292 -6,7 C -5,0 C 0,0 km/h (0 Bft)
02.12.2023 22:30 14,8 C -5,0 C 0,7 C 3,6 C 53 % 88 % 1021,5 hPa 0,0 l/m 0,0 km/h (0 Bft) W-NW 292 -6,7 C -5,0 C 0,0 km/h (0 Bft)
02.12.2023 22:25 14,8 C -5,0 C 0,7 C 3,6 C 54 % 88 % 1021,5 hPa 0,0 l/m 0,0 km/h (0 Bft) W-NW 292 -6,7 C -5,0 C 0,0 km/h (0 Bft)
02.12.2023 22:20 14,8 C -5,0 C 0,7 C 3,6 C 54 % 88 % 1021,5 hPa 0,0 l/m 0,0 km/h (0 Bft) W-NW 292 -6,7 C -5,0 C 0,0 km/h (0 Bft)
02.12.2023 22:15 14,8 C -5,0 C 0,7 C 3,6 C 53 % 88 % 1021,5 hPa 0,0 l/m 0,0 km/h (0 Bft) W-NW 292 -6,7 C -5,0 C 0,0 km/h (0 Bft)
02.12.2023 22:10 14,8 C -5,0 C 0,7 C 3,6 C 53 % 88 % 1021,3 hPa 0,0 l/m 0,0 km/h (0 Bft) W-NW 292 -6,7 C -5,0 C 0,0 km/h (0 Bft)
02.12.2023 22:05 15,0 C -5,0 C 0,7 C 3,6 C 53 % 88 % 1021,3 hPa 0,0 l/m 0,0 km/h (0 Bft) W-NW 292 -6,7 C -5,0 C 0,0 km/h (0 Bft)
02.12.2023 22:00 15,0 C -5,0 C 0,7 C 3,6 C 53 % 88 % 1021,3 hPa 0,0 l/m 0,0 km/h (0 Bft) W-NW 292 -6,7 C -5,0 C 0,0 km/h (0 Bft)
02.12.2023 21:55 15,0 C -4,9 C 0,7 C 3,6 C 53 % 88 % 1021,3 hPa 0,0 l/m 0,0 km/h (0 Bft) W-NW 292 -6,6 C -4,9 C 0,0 km/h (0 Bft)
02.12.2023 21:50 15,1 C -4,9 C 0,7 C 3,6 C 53 % 88 % 1020,9 hPa 0,0 l/m 0,0 km/h (0 Bft) W-NW 292 -6,6 C -4,9 C 0,0 km/h (0 Bft)
02.12.2023 21:45 15,1 C -4,9 C 0,7 C 3,6 C 53 % 88 % 1020,9 hPa 0,0 l/m 0,0 km/h (0 Bft) W-NW 292 -6,6 C -4,9 C 0,0 km/h (0 Bft)
02.12.2023 21:40 15,1 C -4,9 C 0,7 C 3,6 C 53 % 88 % 1020,9 hPa 0,0 l/m 0,0 km/h (0 Bft) W-NW 292 -6,6 C -4,9 C 0,0 km/h (0 Bft)
02.12.2023 21:35 15,2 C -4,9 C 0,7 C 3,6 C 53 % 88 % 1020,9 hPa 0,0 l/m 0,0 km/h (0 Bft) W-NW 292 -6,6 C -4,9 C 0,0 km/h (0 Bft)
02.12.2023 21:30 15,2 C -4,9 C 0,7 C 3,6 C 53 % 88 % 1020,7 hPa 0,0 l/m 0,0 km/h (0 Bft) W-NW 292 -6,6 C -4,9 C 0,0 km/h (0 Bft)
02.12.2023 21:25 15,2 C -4,9 C 0,7 C 3,6 C 53 % 88 % 1020,7 hPa 0,0 l/m 0,0 km/h (0 Bft) W-NW 292 -6,6 C -4,9 C 0,0 km/h (0 Bft)
02.12.2023 21:20 15,2 C -4,9 C 0,7 C 3,6 C 53 % 88 % 1020,7 hPa 0,0 l/m 0,0 km/h (0 Bft) W-NW 292 -6,6 C -4,9 C 0,0 km/h (0 Bft)
02.12.2023 21:15 15,2 C -4,9 C 0,7 C 3,6 C 53 % 89 % 1020,7 hPa 0,0 l/m 0,0 km/h (0 Bft) W-NW 292 -6,4 C -4,9 C 0,0 km/h (0 Bft)
02.12.2023 21:10 15,2 C -4,9 C 0,7 C 3,6 C 53 % 89 % 1020,4 hPa 0,0 l/m 0,0 km/h (0 Bft) W-NW 292 -6,4 C -4,9 C 0,0 km/h (0 Bft)
02.12.2023 21:05 15,2 C -4,9 C 0,7 C 3,6 C 53 % 89 % 1020,4 hPa 0,0 l/m 0,0 km/h (0 Bft) W-NW 292 -6,4 C -4,9 C 0,0 km/h (0 Bft)
02.12.2023 21:00 15,2 C -4,8 C 0,7 C 3,6 C 53 % 89 % 1020,4 hPa 0,0 l/m 0,0 km/h (0 Bft) W-NW 292 -6,3 C -4,8 C 0,0 km/h (0 Bft)
02.12.2023 20:55 15,2 C -4,7 C 0,7 C 3,6 C 54 % 89 % 1020,4 hPa 0,0 l/m 0,0 km/h (0 Bft) W-NW 292 -6,2 C -4,7 C 0,0 km/h (0 Bft)
02.12.2023 20:50 15,1 C -4,7 C 0,8 C 3,6 C 54 % 90 % 1020,2 hPa 0,0 l/m 0,0 km/h (0 Bft) W-NW 292 -6,1 C -4,7 C 0,0 km/h (0 Bft)
02.12.2023 20:45 15,1 C -4,5 C 0,8 C 3,6 C 54 % 90 % 1020,2 hPa 0,0 l/m 0,0 km/h (0 Bft) W-NW 292 -5,9 C -4,5 C 0,0 km/h (0 Bft)
02.12.2023 20:40 15,1 C -4,5 C 0,8 C 3,6 C 54 % 90 % 1020,2 hPa 0,0 l/m 0,0 km/h (0 Bft) W-NW 292 -5,9 C -4,5 C 0,0 km/h (0 Bft)
02.12.2023 20:35 15,1 C -4,4 C 0,8 C 3,6 C 54 % 90 % 1020,2 hPa 0,0 l/m 0,0 km/h (0 Bft) W-NW 292 -5,8 C -4,4 C 0,0 km/h (0 Bft)
02.12.2023 20:30 15,1 C -4,4 C 0,8 C 3,6 C 54 % 90 % 1019,8 hPa 0,0 l/m 0,0 km/h (0 Bft) W-NW 292 -5,8 C -4,4 C 0,0 km/h (0 Bft)
02.12.2023 20:25 15,2 C -4,4 C 0,8 C 3,6 C 54 % 90 % 1019,8 hPa 0,0 l/m 0,0 km/h (0 Bft) W-NW 292 -5,8 C -4,4 C 0,0 km/h (0 Bft)
02.12.2023 20:20 15,2 C -4,3 C 0,8 C 3,6 C 54 % 90 % 1019,8 hPa 0,0 l/m 0,0 km/h (0 Bft) W-NW 292 -5,7 C -4,3 C 0,0 km/h (0 Bft)
02.12.2023 20:15 15,2 C -4,3 C 0,8 C 3,6 C 53 % 90 % 1019,8 hPa 0,0 l/m 0,0 km/h (0 Bft) W-NW 292 -5,7 C -4,3 C 0,0 km/h (0 Bft)
02.12.2023 20:10 15,1 C -4,3 C 0,8 C 3,6 C 53 % 90 % 1019,4 hPa 0,0 l/m 0,0 km/h (0 Bft) W-NW 292 -5,7 C -4,3 C 0,0 km/h (0 Bft)
02.12.2023 20:05 15,1 C -4,3 C 0,8 C 3,6 C 53 % 90 % 1019,4 hPa 0,0 l/m 0,0 km/h (0 Bft) W-NW 292 -5,7 C -4,3 C 0,0 km/h (0 Bft)
02.12.2023 20:00 15,3 C -4,1 C 0,8 C 3,6 C 53 % 90 % 1019,4 hPa 0,0 l/m 0,0 km/h (0 Bft) W-NW 292 -5,5 C -4,1 C 0,0 km/h (0 Bft)
02.12.2023 19:55 15,2 C -4,1 C 0,8 C 3,6 C 54 % 90 % 1019,4 hPa 0,0 l/m 0,0 km/h (0 Bft) W-NW 292 -5,5 C -4,1 C 0,0 km/h (0 Bft)
02.12.2023 19:50 15,3 C -4,1 C 0,8 C 3,6 C 53 % 90 % 1018,9 hPa 0,0 l/m 0,0 km/h (0 Bft) W-NW 292 -5,5 C -4,1 C 0,0 km/h (0 Bft)
02.12.2023 19:45 15,2 C -4,1 C 0,8 C 3,6 C 54 % 90 % 1018,9 hPa 0,0 l/m 0,0 km/h (0 Bft) W-NW 292 -5,5 C -4,1 C 0,0 km/h (0 Bft)
02.12.2023 19:40 15,3 C -4,1 C 0,8 C 3,6 C 54 % 90 % 1018,9 hPa 0,0 l/m 0,0 km/h (0 Bft) W-NW 292 -5,5 C -4,1 C 0,0 km/h (0 Bft)
02.12.2023 19:35 15,3 C -4,0 C 0,8 C 3,6 C 54 % 90 % 1018,9 hPa 0,0 l/m 0,0 km/h (0 Bft) W-NW 292 -5,4 C -4,0 C 0,0 km/h (0 Bft)
02.12.2023 19:30 15,1 C -4,0 C 0,8 C 3,6 C 54 % 91 % 1018,6 hPa 0,0 l/m 0,0 km/h (0 Bft) W-NW 292 -5,2 C -4,0 C 0,0 km/h (0 Bft)
02.12.2023 19:25 15,3 C -4,0 C 0,8 C 3,6 C 54 % 91 % 1018,6 hPa 0,0 l/m 0,0 km/h (0 Bft) W-NW 292 -5,2 C -4,0 C 0,0 km/h (0 Bft)
02.12.2023 19:20 15,1 C -4,0 C 0,9 C 3,6 C 54 % 91 % 1018,6 hPa 0,0 l/m 0,0 km/h (0 Bft) W-NW 292 -5,2 C -4,0 C 0,0 km/h (0 Bft)
02.12.2023 19:15 15,1 C -4,0 C 0,9 C 3,6 C 54 % 91 % 1018,6 hPa 0,0 l/m 0,0 km/h (0 Bft) W-NW 292 -5,2 C -4,0 C 0,0 km/h (0 Bft)
02.12.2023 19:10 15,1 C -4,0 C 0,9 C 3,6 C 54 % 91 % 1018,4 hPa 0,0 l/m 0,0 km/h (0 Bft) W-NW 292 -5,2 C -4,0 C 0,0 km/h (0 Bft)
02.12.2023 19:05 15,1 C -3,8 C 0,9 C 3,6 C 54 % 91 % 1018,4 hPa 0,0 l/m 0,0 km/h (0 Bft) W-NW 292 -5,0 C -3,8 C 0,0 km/h (0 Bft)
02.12.2023 19:00 15,2 C -3,8 C 0,9 C 3,6 C 53 % 91 % 1018,4 hPa 0,0 l/m 0,0 km/h (0 Bft) W-NW 292 -5,0 C -3,8 C 0,0 km/h (0 Bft)
02.12.2023 18:55 15,4 C -3,8 C 0,9 C 3,6 C 53 % 91 % 1018,4 hPa 0,0 l/m 0,0 km/h (0 Bft) W-NW 292 -5,0 C -3,8 C 0,0 km/h (0 Bft)
02.12.2023 18:50 15,3 C -3,8 C 0,9 C 3,6 C 53 % 91 % 1017,9 hPa 0,0 l/m 0,0 km/h (0 Bft) W-NW 292 -5,0 C -3,8 C 0,0 km/h (0 Bft)
02.12.2023 18:45 15,4 C -3,8 C 0,8 C 3,6 C 53 % 91 % 1017,9 hPa 0,0 l/m 0,0 km/h (0 Bft) W-NW 292 -5,0 C -3,8 C 0,0 km/h (0 Bft)
02.12.2023 18:40 15,6 C -3,8 C 0,8 C 3,6 C 53 % 91 % 1017,9 hPa 0,0 l/m 0,0 km/h (0 Bft) W-NW 292 -5,0 C -3,8 C 0,0 km/h (0 Bft)
02.12.2023 18:35 15,6 C -3,8 C 0,9 C 3,6 C 53 % 91 % 1017,9 hPa 0,0 l/m 0,0 km/h (0 Bft) W-NW 292 -5,0 C -3,8 C 0,0 km/h (0 Bft)
02.12.2023 18:30 15,7 C -3,7 C 0,9 C 3,6 C 53 % 91 % 1017,6 hPa 0,0 l/m 0,0 km/h (0 Bft) W-NW 292 -4,9 C -3,7 C 0,0 km/h (0 Bft)
02.12.2023 18:25 15,8 C -3,7 C 0,9 C 3,6 C 53 % 91 % 1017,6 hPa 0,0 l/m 0,0 km/h (0 Bft) W-NW 292 -4,9 C -3,7 C 0,0 km/h (0 Bft)
02.12.2023 18:20 15,8 C -3,7 C 0,9 C 3,6 C 53 % 91 % 1017,6 hPa 0,0 l/m 0,0 km/h (0 Bft) W-NW 292 -4,9 C -3,7 C 0,0 km/h (0 Bft)
02.12.2023 18:15 15,8 C -3,6 C 0,9 C 3,6 C 53 % 92 % 1017,6 hPa 0,0 l/m 0,0 km/h (0 Bft) W-NW 292 -4,7 C -3,6 C 0,0 km/h (0 Bft)
02.12.2023 18:10 15,9 C -3,6 C 0,9 C 3,6 C 53 % 92 % 1017,0 hPa 0,0 l/m 0,0 km/h (0 Bft) W-NW 292 -4,7 C -3,6 C 0,0 km/h (0 Bft)
02.12.2023 18:05 16,0 C -3,4 C 0,9 C 3,6 C 53 % 92 % 1017,0 hPa 0,0 l/m 0,0 km/h (0 Bft) W-NW 292 -4,5 C -3,4 C 0,0 km/h (0 Bft)
02.12.2023 18:00 16,0 C -3,5 C 0,9 C 3,6 C 52 % 92 % 1017,0 hPa 0,0 l/m 0,0 km/h (0 Bft) W-NW 292 -4,6 C -3,5 C 0,0 km/h (0 Bft)
02.12.2023 17:55 16,0 C -3,3 C 0,9 C 3,6 C 52 % 92 % 1017,0 hPa 0,0 l/m 0,0 km/h (0 Bft) W-NW 292 -4,4 C -3,3 C 0,0 km/h (0 Bft)
02.12.2023 17:50 15,9 C -3,3 C 0,9 C 3,6 C 52 % 92 % 1016,8 hPa 0,0 l/m 0,0 km/h (0 Bft) W-NW 292 -4,4 C -3,3 C 0,0 km/h (0 Bft)
02.12.2023 17:45 15,9 C -3,3 C 0,9 C 3,6 C 52 % 92 % 1016,8 hPa 0,0 l/m 0,0 km/h (0 Bft) W-NW 292 -4,4 C -3,3 C 0,0 km/h (0 Bft)
02.12.2023 17:40 15,9 C -3,3 C 0,9 C 3,6 C 53 % 92 % 1016,8 hPa 0,0 l/m 0,0 km/h (0 Bft) W-NW 292 -4,4 C -3,3 C 0,0 km/h (0 Bft)
02.12.2023 17:35 16,1 C -3,3 C 0,9 C 3,6 C 52 % 92 % 1016,8 hPa 0,0 l/m 0,0 km/h (0 Bft) W-NW 292 -4,4 C -3,3 C 0,0 km/h (0 Bft)
02.12.2023 17:30 16,1 C -3,3 C 0,9 C 3,6 C 52 % 92 % 1016,2 hPa 0,0 l/m 0,0 km/h (0 Bft) W-NW 292 -4,4 C -3,3 C 0,0 km/h (0 Bft)
02.12.2023 17:25 16,1 C -3,3 C 0,9 C 3,6 C 52 % 92 % 1016,2 hPa 0,0 l/m 0,0 km/h (0 Bft) W-NW 292 -4,4 C -3,3 C 0,0 km/h (0 Bft)
02.12.2023 17:20 16,1 C -3,3 C 0,9 C 3,6 C 53 % 92 % 1016,2 hPa 0,0 l/m 0,0 km/h (0 Bft) W-NW 292 -4,4 C -3,3 C 0,0 km/h (0 Bft)
02.12.2023 17:15 16,1 C -3,2 C 0,9 C 3,6 C 53 % 92 % 1016,2 hPa 0,0 l/m 0,0 km/h (0 Bft) W-NW 292 -4,3 C -3,2 C 0,0 km/h (0 Bft)
02.12.2023 17:10 16,1 C -3,2 C 0,9 C 3,6 C 52 % 92 % 1015,9 hPa 0,0 l/m 0,0 km/h (0 Bft) W-NW 292 -4,3 C -3,2 C 0,0 km/h (0 Bft)
02.12.2023 17:05 16,1 C -3,2 C 0,9 C 3,6 C 52 % 92 % 1015,9 hPa 0,0 l/m 0,0 km/h (0 Bft) W-NW 292 -4,3 C -3,2 C 0,0 km/h (0 Bft)
02.12.2023 17:00 16,2 C -3,2 C 0,9 C 3,6 C 52 % 92 % 1015,9 hPa 0,0 l/m 0,0 km/h (0 Bft) W-NW 292 -4,3 C -3,2 C 0,0 km/h (0 Bft)
02.12.2023 16:55 16,2 C -3,2 C 0,9 C 3,6 C 52 % 92 % 1015,9 hPa 0,0 l/m 0,0 km/h (0 Bft) W-NW 292 -4,3 C -3,2 C 0,0 km/h (0 Bft)
02.12.2023 16:50 16,3 C -3,2 C 0,9 C 3,6 C 52 % 92 % 1015,8 hPa 0,0 l/m 0,0 km/h (0 Bft) W-NW 292 -4,3 C -3,2 C 0,0 km/h (0 Bft)
02.12.2023 16:45 16,2 C -3,2 C 0,9 C 3,6 C 52 % 92 % 1015,8 hPa 0,0 l/m 0,0 km/h (0 Bft) W-NW 292 -4,3 C -3,2 C 0,0 km/h (0 Bft)
02.12.2023 16:40 16,4 C -3,2 C 0,9 C 3,6 C 52 % 92 % 1015,8 hPa 0,0 l/m 0,0 km/h (0 Bft) W-NW 292 -4,3 C -3,2 C 0,0 km/h (0 Bft)
02.12.2023 16:35 16,5 C -3,2 C 0,9 C 3,6 C 52 % 92 % 1015,8 hPa 0,0 l/m 0,0 km/h (0 Bft) W-NW 292 -4,3 C -3,2 C 0,0 km/h (0 Bft)
02.12.2023 16:30 16,5 C -3,2 C 0,9 C 3,6 C 52 % 92 % 1015,3 hPa 0,0 l/m 0,0 km/h (0 Bft) W-NW 292 -4,3 C -3,2 C 0,0 km/h (0 Bft)
02.12.2023 16:25 16,5 C -3,2 C 0,9 C 3,6 C 52 % 92 % 1015,3 hPa 0,0 l/m 0,0 km/h (0 Bft) W-NW 292 -4,3 C -3,2 C 0,0 km/h (0 Bft)
02.12.2023 16:20 16,6 C -3,2 C 0,9 C 3,6 C 52 % 92 % 1015,3 hPa 0,0 l/m 0,0 km/h (0 Bft) W-NW 292 -4,3 C -3,2 C 0,0 km/h (0 Bft)
02.12.2023 16:15 16,6 C -3,1 C 0,9 C 3,6 C 52 % 92 % 1015,3 hPa 0,0 l/m 0,0 km/h (0 Bft) W-NW 292 -4,2 C -3,1 C 0,0 km/h (0 Bft)
02.12.2023 16:10 16,6 C -3,1 C 0,9 C 3,6 C 52 % 92 % 1014,9 hPa 0,0 l/m 0,0 km/h (0 Bft) W-NW 292 -4,2 C -3,1 C 0,0 km/h (0 Bft)
02.12.2023 16:05 16,6 C -3,1 C 0,9 C 3,6 C 51 % 93 % 1014,9 hPa 0,0 l/m 0,0 km/h (0 Bft) W-NW 292 -4,1 C -3,1 C 0,0 km/h (0 Bft)
02.12.2023 16:00 16,6 C -2,9 C 0,9 C 3,6 C 53 % 93 % 1014,9 hPa 0,0 l/m 0,0 km/h (0 Bft) W-NW 292 -3,9 C -2,9 C 0,0 km/h (0 Bft)
02.12.2023 15:55 16,6 C -2,9 C 0,9 C 3,6 C 52 % 93 % 1014,9 hPa 0,0 l/m 0,0 km/h (0 Bft) W-NW 292 -3,9 C -2,9 C 0,0 km/h (0 Bft)
02.12.2023 15:50 16,6 C -2,9 C 0,9 C 3,6 C 52 % 93 % 1014,4 hPa 0,0 l/m 0,0 km/h (0 Bft) W-NW 292 -3,9 C -2,9 C 0,0 km/h (0 Bft)
02.12.2023 15:45 16,6 C -2,9 C 0,9 C 3,6 C 52 % 93 % 1014,4 hPa 0,0 l/m 0,0 km/h (0 Bft) W-NW 292 -3,9 C -2,9 C 0,0 km/h (0 Bft)
02.12.2023 15:40 16,6 C -2,8 C 0,9 C 3,6 C 52 % 93 % 1014,4 hPa 0,0 l/m 0,0 km/h (0 Bft) W-NW 292 -3,8 C -2,8 C 0,0 km/h (0 Bft)
02.12.2023 15:35 16,5 C -2,8 C 0,9 C 3,6 C 52 % 93 % 1014,4 hPa 0,0 l/m 0,0 km/h (0 Bft) W-NW 292 -3,8 C -2,8 C 0,0 km/h (0 Bft)
02.12.2023 15:30 16,5 C -2,8 C 0,9 C 3,6 C 53 % 93 % 1014,1 hPa 0,0 l/m 0,0 km/h (0 Bft) W-NW 292 -3,8 C -2,8 C 0,0 km/h (0 Bft)
02.12.2023 15:25 16,5 C -2,8 C 0,9 C 3,6 C 53 % 93 % 1014,1 hPa 0,0 l/m 0,0 km/h (0 Bft) W-NW 292 -3,8 C -2,8 C 0,0 km/h (0 Bft)
02.12.2023 15:20 16,4 C -2,7 C 0,9 C 3,6 C 53 % 93 % 1014,1 hPa 0,0 l/m 0,0 km/h (0 Bft) W-NW 292 -3,7 C -2,7 C 0,0 km/h (0 Bft)
02.12.2023 15:15 16,4 C -2,7 C 0,9 C 3,6 C 53 % 93 % 1014,1 hPa 0,0 l/m 0,0 km/h (0 Bft) W-NW 292 -3,7 C -2,7 C 0,0 km/h (0 Bft)
02.12.2023 15:10 16,4 C -2,7 C 0,9 C 3,6 C 53 % 93 % 1013,5 hPa 0,0 l/m 0,0 km/h (0 Bft) W-NW 292 -3,7 C -2,7 C 0,0 km/h (0 Bft)
02.12.2023 15:05 16,4 C -2,5 C 0,9 C 3,6 C 53 % 93 % 1013,5 hPa 0,0 l/m 0,0 km/h (0 Bft) W-NW 292 -3,5 C -2,5 C 0,0 km/h (0 Bft)
02.12.2023 15:00 16,4 C -2,5 C 0,9 C 3,6 C 53 % 93 % 1013,5 hPa 0,0 l/m 0,0 km/h (0 Bft) W-NW 292 -3,5 C -2,5 C 0,0 km/h (0 Bft)
02.12.2023 14:55 16,4 C -2,5 C 0,9 C 3,6 C 53 % 93 % 1013,5 hPa 0,0 l/m 0,0 km/h (0 Bft) W-NW 292 -3,5 C -2,5 C 0,0 km/h (0 Bft)
02.12.2023 14:50 16,4 C -2,5 C 0,9 C 3,6 C 53 % 93 % 1012,9 hPa 0,0 l/m 0,0 km/h (0 Bft) W-NW 292 -3,5 C -2,5 C 0,0 km/h (0 Bft)
02.12.2023 14:45 16,4 C -2,4 C 0,9 C 3,6 C 53 % 93 % 1012,9 hPa 0,0 l/m 0,0 km/h (0 Bft) W-NW 292 -3,4 C -2,4 C 0,0 km/h (0 Bft)
02.12.2023 14:40 16,2 C -2,4 C 0,9 C 3,6 C 53 % 93 % 1012,9 hPa 0,0 l/m 0,0 km/h (0 Bft) W-NW 292 -3,4 C -2,4 C 0,0 km/h (0 Bft)
02.12.2023 14:30 16,2 C -2,1 C 0,9 C 3,7 C 52 % 93 % 1013,1 hPa 0,0 l/m 0,0 km/h (0 Bft) W-NW 292 -3,1 C -2,1 C 0,0 km/h (0 Bft)
02.12.2023 14:25 16,2 C -2,1 C 0,9 C 3,7 C 52 % 93 % 1012,4 hPa 0,0 l/m 0,0 km/h (0 Bft) W-NW 292 -3,1 C -2,1 C 0,0 km/h (0 Bft)
02.12.2023 14:20 16,2 C -2,0 C 0,9 C 3,7 C 52 % 94 % 1012,4 hPa 0,0 l/m 0,0 km/h (0 Bft) W-NW 292 -2,8 C -2,0 C 0,0 km/h (0 Bft)
02.12.2023 14:15 16,1 C -2,0 C 0,9 C 3,7 C 52 % 94 % 1012,4 hPa 0,0 l/m 0,0 km/h (0 Bft) W-NW 292 -2,8 C -2,0 C 0,0 km/h (0 Bft)
02.12.2023 14:10 16,1 C -2,0 C 0,9 C 3,7 C 52 % 94 % 1012,4 hPa 0,0 l/m 0,0 km/h (0 Bft) W-NW 292 -2,8 C -2,0 C 0,0 km/h (0 Bft)
02.12.2023 14:05 15,9 C -2,0 C 0,9 C 3,7 C 52 % 94 % 1012,2 hPa 0,0 l/m 0,0 km/h (0 Bft) W-NW 292 -2,8 C -2,0 C 0,0 km/h (0 Bft)
02.12.2023 14:00 16,0 C -1,9 C 0,9 C 3,7 C 52 % 94 % 1012,2 hPa 0,0 l/m 0,0 km/h (0 Bft) W-NW 292 -2,7 C -1,9 C 0,0 km/h (0 Bft)
02.12.2023 13:55 16,0 C -1,9 C 0,9 C 3,7 C 52 % 94 % 1012,2 hPa 0,0 l/m 0,0 km/h (0 Bft) W-NW 292 -2,7 C -1,9 C 0,0 km/h (0 Bft)
02.12.2023 13:50 15,9 C -1,9 C 0,9 C 3,7 C 52 % 94 % 1012,2 hPa 0,0 l/m 0,0 km/h (0 Bft) W-NW 292 -2,7 C -1,9 C 0,0 km/h (0 Bft)
02.12.2023 13:45 15,8 C -1,7 C 0,9 C 3,7 C 52 % 94 % 1011,8 hPa 0,0 l/m 0,0 km/h (0 Bft) W-NW 292 -2,5 C -1,7 C 0,0 km/h (0 Bft)
02.12.2023 13:40 15,8 C -1,7 C 0,9 C 3,7 C 52 % 94 % 1011,8 hPa 0,0 l/m 0,0 km/h (0 Bft) W-NW 292 -2,5 C -1,7 C 0,0 km/h (0 Bft)
02.12.2023 13:38 15,8 C -1,7 C 0,9 C 3,7 C 52 % 94 % 1011,8 hPa 0,0 l/m 0,0 km/h (0 Bft) W-NW 292 -2,5 C -1,7 C 0,0 km/h (0 Bft)
02.12.2023 13:35 15,6 C -1,7 C 0,9 C 3,7 C 52 % 94 % 1011,8 hPa 0,0 l/m 0,0 km/h (0 Bft) W-NW 292 -2,5 C -1,7 C 0,0 km/h (0 Bft)
02.12.2023 13:30 15,6 C -1,7 C 0,9 C 3,7 C 52 % 94 % 1011,8 hPa 0,0 l/m 0,0 km/h (0 Bft) W-NW 292 -2,5 C -1,7 C 0,0 km/h (0 Bft)
02.12.2023 13:25 15,6 C -1,7 C 0,9 C 3,7 C 52 % 94 % 1011,4 hPa 0,0 l/m 0,0 km/h (0 Bft) W-NW 292 -2,5 C -1,7 C 0,0 km/h (0 Bft)
02.12.2023 13:20 15,6 C -1,7 C 1,0 C 3,7 C 52 % 94 % 1011,4 hPa 0,0 l/m 0,0 km/h (0 Bft) W-NW 292 -2,5 C -1,7 C 0,0 km/h (0 Bft)
02.12.2023 13:15 15,6 C -1,6 C 1,0 C 3,7 C 52 % 95 % 1011,4 hPa 0,0 l/m 0,0 km/h (0 Bft) W-NW 292 -2,3 C -1,6 C 0,0 km/h (0 Bft)
02.12.2023 13:10 15,4 C -1,6 C 1,0 C 3,7 C 52 % 95 % 1011,4 hPa 0,0 l/m 0,0 km/h (0 Bft) W-NW 292 -2,3 C -1,6 C 0,0 km/h (0 Bft)
02.12.2023 13:05 15,4 C -1,6 C 1,0 C 3,7 C 52 % 95 % 1010,7 hPa 0,0 l/m 0,0 km/h (0 Bft) W-NW 292 -2,3 C -1,6 C 0,0 km/h (0 Bft)
02.12.2023 13:00 15,5 C -1,6 C 1,0 C 3,7 C 52 % 95 % 1010,7 hPa 0,0 l/m 0,0 km/h (0 Bft) W-NW 292 -2,3 C -1,6 C 0,0 km/h (0 Bft)
02.12.2023 13:32 15,6 C -1,7 C 0,9 C 3,7 C 52 % 94 % 1011,8 hPa 0,0 l/m 0,0 km/h (0 Bft) W-NW 292 -2,5 C -1,7 C 0,0 km/h (0 Bft)
02.12.2023 13:30 15,6 C -1,7 C 0,9 C 3,7 C 52 % 94 % 1011,8 hPa 0,0 l/m 0,0 km/h (0 Bft) W-NW 292 -2,5 C -1,7 C 0,0 km/h (0 Bft)
02.12.2023 13:28 15,6 C -1,7 C 0,9 C 3,7 C 52 % 94 % 1011,4 hPa 0,0 l/m 0,0 km/h (0 Bft) W-NW 292 -2,5 C -1,7 C 0,0 km/h (0 Bft)
02.12.2023 13:26 15,6 C -1,7 C 0,9 C 3,7 C 52 % 94 % 1011,4 hPa 0,0 l/m 0,0 km/h (0 Bft) W-NW 292 -2,5 C -1,7 C 0,0 km/h (0 Bft)
02.12.2023 13:24 15,6 C -1,7 C 0,9 C 3,7 C 52 % 94 % 1011,4 hPa 0,0 l/m 0,0 km/h (0 Bft) W-NW 292 -2,5 C -1,7 C 0,0 km/h (0 Bft)
02.12.2023 13:22 15,6 C -1,7 C 0,9 C 3,7 C 52 % 94 % 1011,4 hPa 0,0 l/m 0,0 km/h (0 Bft) W-NW 292 -2,5 C -1,7 C 0,0 km/h (0 Bft)
02.12.2023 13:20 15,6 C -1,7 C 1,0 C 3,7 C 52 % 94 % 1011,4 hPa 0,0 l/m 0,0 km/h (0 Bft) W-NW 292 -2,5 C -1,7 C 0,0 km/h (0 Bft)
02.12.2023 13:18 15,6 C -1,7 C 1,0 C 3,7 C 52 % 94 % 1011,4 hPa 0,0 l/m 0,0 km/h (0 Bft) W-NW 292 -2,5 C -1,7 C 0,0 km/h (0 Bft)
02.12.2023 13:16 15,6 C -1,6 C 1,0 C 3,7 C 52 % 95 % 1011,4 hPa 0,0 l/m 0,0 km/h (0 Bft) W-NW 292 -2,3 C -1,6 C 0,0 km/h (0 Bft)
02.12.2023 13:14 15,6 C -1,6 C 1,0 C 3,7 C 52 % 95 % 1011,4 hPa 0,0 l/m 0,0 km/h (0 Bft) W-NW 292 -2,3 C -1,6 C 0,0 km/h (0 Bft)
02.12.2023 13:12 15,6 C -1,6 C 1,0 C 3,7 C 52 % 95 % 1011,4 hPa 0,0 l/m 0,0 km/h (0 Bft) W-NW 292 -2,3 C -1,6 C 0,0 km/h (0 Bft)
02.12.2023 13:10 15,4 C -1,6 C 1,0 C 3,7 C 52 % 95 % 1011,4 hPa 0,0 l/m 0,0 km/h (0 Bft) W-NW 292 -2,3 C -1,6 C 0,0 km/h (0 Bft)
02.12.2023 13:08 15,4 C -1,6 C 1,0 C 3,7 C 52 % 95 % 1010,7 hPa 0,0 l/m 0,0 km/h (0 Bft) W-NW 292 -2,3 C -1,6 C 0,0 km/h (0 Bft)
02.12.2023 13:06 15,4 C -1,6 C 1,0 C 3,7 C 52 % 95 % 1010,7 hPa 0,0 l/m 0,0 km/h (0 Bft) W-NW 292 -2,3 C -1,6 C 0,0 km/h (0 Bft)
02.12.2023 13:04 15,4 C -1,6 C 1,0 C 3,7 C 52 % 95 % 1010,7 hPa 0,0 l/m 0,0 km/h (0 Bft) W-NW 292 -2,3 C -1,6 C 0,0 km/h (0 Bft)
02.12.2023 13:02 15,5 C -1,6 C 1,0 C 3,7 C 52 % 95 % 1010,7 hPa 0,0 l/m 0,0 km/h (0 Bft) W-NW 292 -2,3 C -1,6 C 0,0 km/h (0 Bft)
02.12.2023 13:00 15,5 C -1,6 C 1,0 C 3,7 C 52 % 95 % 1010,7 hPa 0,0 l/m 0,0 km/h (0 Bft) W-NW 292 -2,3 C -1,6 C 0,0 km/h (0 Bft)
02.12.2023 12:58 15,5 C -1,6 C 1,0 C 3,7 C 52 % 95 % 1010,7 hPa 0,0 l/m 0,0 km/h (0 Bft) W-NW 292 -2,3 C -1,6 C 0,0 km/h (0 Bft)
02.12.2023 12:56 15,3 C -1,6 C 1,0 C 3,7 C 52 % 95 % 1010,7 hPa 0,0 l/m 0,0 km/h (0 Bft) W-NW 292 -2,3 C -1,6 C 0,0 km/h (0 Bft)
02.12.2023 12:54 15,4 C -1,6 C 1,0 C 3,7 C 52 % 95 % 1010,7 hPa 0,0 l/m 0,0 km/h (0 Bft) W-NW 292 -2,3 C -1,6 C 0,0 km/h (0 Bft)
02.12.2023 12:52 15,4 C -1,6 C 1,0 C 3,7 C 52 % 95 % 1010,7 hPa 0,0 l/m 0,0 km/h (0 Bft) W-NW 292 -2,3 C -1,6 C 0,0 km/h (0 Bft)
02.12.2023 12:50 15,4 C -1,6 C 1,0 C 3,7 C 52 % 95 % 1010,7 hPa 0,0 l/m 0,0 km/h (0 Bft) W-NW 292 -2,3 C -1,6 C 0,0 km/h (0 Bft)
02.12.2023 12:48 15,4 C -1,6 C 1,0 C 3,7 C 52 % 95 % 1010,2 hPa 0,0 l/m 0,0 km/h (0 Bft) W-NW 292 -2,3 C -1,6 C 0,0 km/h (0 Bft)
02.12.2023 12:46 15,4 C -1,4 C 1,0 C 3,7 C 52 % 95 % 1010,2 hPa 0,0 l/m 0,0 km/h (0 Bft) W-NW 292 -2,1 C -1,4 C 0,0 km/h (0 Bft)
02.12.2023 12:44 15,4 C -1,5 C 1,0 C 3,7 C 51 % 95 % 1010,2 hPa 0,0 l/m 0,0 km/h (0 Bft) W-NW 292 -2,2 C -1,5 C 0,0 km/h (0 Bft)
02.12.2023 12:42 15,4 C -1,3 C 1,0 C 3,7 C 51 % 95 % 1010,2 hPa 0,0 l/m 0,0 km/h (0 Bft) W-NW 292 -2,0 C -1,3 C 0,0 km/h (0 Bft)
02.12.2023 12:40 15,2 C -1,3 C 1,0 C 3,7 C 51 % 95 % 1010,2 hPa 0,0 l/m 0,0 km/h (0 Bft) W-NW 292 -2,0 C -1,3 C 0,0 km/h (0 Bft)
02.12.2023 12:38 15,2 C -1,3 C 1,0 C 3,7 C 51 % 95 % 1010,2 hPa 0,0 l/m 0,0 km/h (0 Bft) W-NW 292 -2,0 C -1,3 C 0,0 km/h (0 Bft)
02.12.2023 12:36 15,2 C -1,4 C 1,0 C 3,7 C 52 % 95 % 1010,2 hPa 0,0 l/m 0,0 km/h (0 Bft) W-NW 292 -2,1 C -1,4 C 0,0 km/h (0 Bft)
02.12.2023 12:34 15,1 C -1,4 C 1,0 C 3,7 C 52 % 95 % 1010,2 hPa 0,0 l/m 0,0 km/h (0 Bft) W-NW 292 -2,1 C -1,4 C 0,0 km/h (0 Bft)
02.12.2023 12:32 15,3 C -1,4 C 1,0 C 3,7 C 52 % 95 % 1010,2 hPa 0,0 l/m 0,0 km/h (0 Bft) W-NW 292 -2,1 C -1,4 C 0,0 km/h (0 Bft)
02.12.2023 12:30 15,1 C -1,4 C 1,0 C 3,7 C 52 % 95 % 1010,2 hPa 0,0 l/m 0,0 km/h (0 Bft) W-NW 292 -2,1 C -1,4 C 0,0 km/h (0 Bft)
02.12.2023 12:28 15,2 C -1,4 C 1,0 C 3,7 C 51 % 95 % 1009,6 hPa 0,0 l/m 0,0 km/h (0 Bft) W-NW 292 -2,1 C -1,4 C 0,0 km/h (0 Bft)
02.12.2023 12:26 15,2 C -1,4 C 1,0 C 3,7 C 51 % 95 % 1009,6 hPa 0,0 l/m 0,0 km/h (0 Bft) W-NW 292 -2,1 C -1,4 C 0,0 km/h (0 Bft)
02.12.2023 12:24 15,2 C -1,4 C 1,0 C 3,7 C 51 % 95 % 1009,6 hPa 0,0 l/m 0,0 km/h (0 Bft) W-NW 292 -2,1 C -1,4 C 0,0 km/h (0 Bft)
02.12.2023 12:22 15,1 C -1,4 C 1,0 C 3,7 C 51 % 95 % 1009,6 hPa 0,0 l/m 0,0 km/h (0 Bft) W-NW 292 -2,1 C -1,4 C 0,0 km/h (0 Bft)
02.12.2023 12:20 15,1 C -1,4 C 1,0 C 3,7 C 51 % 95 % 1009,6 hPa 0,0 l/m 0,0 km/h (0 Bft) W-NW 292 -2,1 C -1,4 C 0,0 km/h (0 Bft)
02.12.2023 12:18 15,1 C -1,4 C 1,0 C 3,7 C 51 % 95 % 1009,6 hPa 0,0 l/m 0,0 km/h (0 Bft) W-NW 292 -2,1 C -1,4 C 0,0 km/h (0 Bft)
02.12.2023 12:16 14,9 C -1,4 C 1,0 C 3,7 C 51 % 95 % 1009,6 hPa 0,0 l/m 0,0 km/h (0 Bft) W-NW 292 -2,1 C -1,4 C 0,0 km/h (0 Bft)
02.12.2023 12:14 15,0 C -1,4 C 1,0 C 3,7 C 51 % 95 % 1009,6 hPa 0,0 l/m 0,0 km/h (0 Bft) W-NW 292 -2,1 C -1,4 C 0,0 km/h (0 Bft)
02.12.2023 12:12 15,0 C -1,4 C 1,0 C 3,7 C 51 % 95 % 1009,6 hPa 0,0 l/m 0,0 km/h (0 Bft) W-NW 292 -2,1 C -1,4 C 0,0 km/h (0 Bft)
02.12.2023 12:10 15,0 C -1,5 C 1,0 C 3,7 C 51 % 95 % 1009,6 hPa 0,0 l/m 0,0 km/h (0 Bft) W-NW 292 -2,2 C -1,5 C 0,0 km/h (0 Bft)
02.12.2023 12:08 14,8 C -1,5 C 1,0 C 3,7 C 51 % 95 % 1008,3 hPa 0,0 l/m 0,0 km/h (0 Bft) W-NW 292 -2,2 C -1,5 C 0,0 km/h (0 Bft)
02.12.2023 12:06 14,9 C -1,5 C 1,0 C 3,7 C 51 % 95 % 1008,3 hPa 0,0 l/m 0,0 km/h (0 Bft) W-NW 292 -2,2 C -1,5 C 0,0 km/h (0 Bft)
02.12.2023 12:04 14,8 C -1,4 C 1,0 C 3,7 C 51 % 95 % 1008,3 hPa 0,0 l/m 0,0 km/h (0 Bft) W-NW 292 -2,1 C -1,4 C 0,0 km/h (0 Bft)
02.12.2023 12:02 14,8 C -1,4 C 1,0 C 3,7 C 51 % 95 % 1008,3 hPa 0,0 l/m 0,0 km/h (0 Bft) W-NW 292 -2,1 C -1,4 C 0,0 km/h (0 Bft)
02.12.2023 12:00 14,8 C -1,4 C 1,0 C 3,7 C 51 % 95 % 1008,3 hPa 0,0 l/m 0,0 km/h (0 Bft) W-NW 292 -2,1 C -1,4 C 0,0 km/h (0 Bft)
02.12.2023 11:58 14,8 C -1,4 C 1,0 C 3,7 C 51 % 95 % 1008,3 hPa 0,0 l/m 0,0 km/h (0 Bft) W-NW 292 -2,1 C -1,4 C 0,0 km/h (0 Bft)
02.12.2023 11:56 14,8 C -1,4 C 1,0 C 3,7 C 51 % 95 % 1008,3 hPa 0,0 l/m 0,0 km/h (0 Bft) W-NW 292 -2,1 C -1,4 C 0,0 km/h (0 Bft)
02.12.2023 11:54 14,7 C -1,3 C 1,0 C 3,7 C 51 % 95 % 1008,3 hPa 0,0 l/m 0,0 km/h (0 Bft) W-NW 292 -2,0 C -1,3 C 0,0 km/h (0 Bft)
02.12.2023 11:52 14,7 C -1,3 C 1,0 C 3,7 C 51 % 95 % 1008,3 hPa 0,0 l/m 0,0 km/h (0 Bft) W-NW 292 -2,0 C -1,3 C 0,0 km/h (0 Bft)
02.12.2023 11:50 14,6 C -1,3 C 1,0 C 3,7 C 51 % 95 % 1008,3 hPa 0,0 l/m 0,0 km/h (0 Bft) W-NW 292 -2,0 C -1,3 C 0,0 km/h (0 Bft)
02.12.2023 11:48 14,6 C -1,3 C 1,0 C 3,7 C 51 % 95 % 1009,0 hPa 0,0 l/m 0,0 km/h (0 Bft) W-NW 292 -2,0 C -1,3 C 0,0 km/h (0 Bft)
02.12.2023 11:46 14,6 C -1,3 C 1,0 C 3,7 C 50 % 95 % 1009,0 hPa 0,0 l/m 0,0 km/h (0 Bft) W-NW 292 -2,0 C -1,3 C 0,0 km/h (0 Bft)
02.12.2023 11:44 14,6 C -1,3 C 1,0 C 3,7 C 50 % 95 % 1009,0 hPa 0,0 l/m 0,0 km/h (0 Bft) W-NW 292 -2,0 C -1,3 C 0,0 km/h (0 Bft)
02.12.2023 11:42 14,6 C -1,5 C 1,0 C 3,7 C 50 % 95 % 1009,0 hPa 0,0 l/m 0,0 km/h (0 Bft) W-NW 292 -2,2 C -1,5 C 0,0 km/h (0 Bft)
02.12.2023 11:40 14,6 C -1,5 C 1,0 C 3,7 C 50 % 95 % 1009,0 hPa 0,0 l/m 0,0 km/h (0 Bft) W-NW 292 -2,2 C -1,5 C 0,0 km/h (0 Bft)
02.12.2023 11:38 14,6 C -1,5 C 1,0 C 3,7 C 50 % 95 % 1009,0 hPa 0,0 l/m 0,0 km/h (0 Bft) W-NW 292 -2,2 C -1,5 C 0,0 km/h (0 Bft)
02.12.2023 11:36 14,6 C -1,5 C 1,0 C 3,7 C 49 % 95 % 1009,0 hPa 0,0 l/m 0,0 km/h (0 Bft) W-NW 292 -2,2 C -1,5 C 0,0 km/h (0 Bft)
02.12.2023 11:34 14,6 C -1,5 C 1,0 C 3,7 C 49 % 95 % 1009,0 hPa 0,0 l/m 0,0 km/h (0 Bft) W-NW 292 -2,2 C -1,5 C 0,0 km/h (0 Bft)
02.12.2023 11:32 14,6 C -1,5 C 1,0 C 3,7 C 49 % 95 % 1009,0 hPa 0,0 l/m 0,0 km/h (0 Bft) W-NW 292 -2,2 C -1,5 C 0,0 km/h (0 Bft)
02.12.2023 11:30 14,6 C -1,5 C 1,0 C 3,7 C 48 % 95 % 1009,0 hPa 0,0 l/m 0,0 km/h (0 Bft) W-NW 292 -2,2 C -1,5 C 0,0 km/h (0 Bft)
02.12.2023 11:28 14,6 C -1,5 C 1,0 C 3,7 C 48 % 95 % 1009,4 hPa 0,0 l/m 0,0 km/h (0 Bft) W-NW 292 -2,2 C -1,5 C 0,0 km/h (0 Bft)
02.12.2023 11:26 14,6 C -1,5 C 1,0 C 3,7 C 50 % 95 % 1009,4 hPa 0,0 l/m 0,0 km/h (0 Bft) W-NW 292 -2,2 C -1,5 C 0,0 km/h (0 Bft)
02.12.2023 11:24 14,6 C -1,3 C 1,0 C 3,7 C 50 % 95 % 1009,4 hPa 0,0 l/m 0,0 km/h (0 Bft) W-NW 292 -2,0 C -1,3 C 0,0 km/h (0 Bft)
02.12.2023 11:22 14,7 C -1,3 C 1,0 C 3,7 C 49 % 95 % 1009,4 hPa 0,0 l/m 0,0 km/h (0 Bft) W-NW 292 -2,0 C -1,3 C 0,0 km/h (0 Bft)
02.12.2023 11:20 14,7 C -1,3 C 1,0 C 3,7 C 49 % 95 % 1009,4 hPa 0,0 l/m 0,0 km/h (0 Bft) W-NW 292 -2,0 C -1,3 C 0,0 km/h (0 Bft)
02.12.2023 11:18 14,7 C -1,3 C 1,0 C 3,7 C 49 % 95 % 1009,4 hPa 0,0 l/m 0,0 km/h (0 Bft) W-NW 292 -2,0 C -1,3 C 0,0 km/h (0 Bft)
02.12.2023 11:16 14,7 C -1,3 C 1,0 C 3,7 C 48 % 95 % 1009,4 hPa 0,0 l/m 0,0 km/h (0 Bft) W-NW 292 -2,0 C -1,3 C 0,0 km/h (0 Bft)
02.12.2023 11:14 14,6 C -1,3 C 1,0 C 3,7 C 48 % 95 % 1009,4 hPa 0,0 l/m 0,0 km/h (0 Bft) W-NW 292 -2,0 C -1,3 C 0,0 km/h (0 Bft)
02.12.2023 11:12 14,6 C -1,3 C 1,0 C 3,7 C 49 % 95 % 1009,4 hPa 0,0 l/m 0,0 km/h (0 Bft) W-NW 292 -2,0 C -1,3 C 0,0 km/h (0 Bft)
02.12.2023 11:10 14,6 C -1,3 C 1,0 C 3,7 C 49 % 95 % 1009,4 hPa 0,0 l/m 0,0 km/h (0 Bft) W-NW 292 -2,0 C -1,3 C 0,0 km/h (0 Bft)
02.12.2023 11:08 14,8 C -1,3 C 1,0 C 3,7 C 49 % 95 % 1008,4 hPa 0,0 l/m 0,0 km/h (0 Bft) W-NW 292 -2,0 C -1,3 C 0,0 km/h (0 Bft)
02.12.2023 11:06 14,8 C -1,3 C 1,0 C 3,7 C 50 % 95 % 1008,4 hPa 0,0 l/m 0,0 km/h (0 Bft) W-NW 292 -2,0 C -1,3 C 0,0 km/h (0 Bft)
02.12.2023 11:04 14,8 C -1,3 C 1,0 C 3,7 C 50 % 95 % 1008,4 hPa 0,0 l/m 0,0 km/h (0 Bft) W-NW 292 -2,0 C -1,3 C 0,0 km/h (0 Bft)
02.12.2023 11:02 14,8 C -1,3 C 1,0 C 3,7 C 51 % 95 % 1008,4 hPa 0,0 l/m 0,0 km/h (0 Bft) W-NW 292 -2,0 C -1,3 C 0,0 km/h (0 Bft)
02.12.2023 11:00 14,8 C -1,3 C 1,0 C 3,7 C 51 % 95 % 1008,4 hPa 0,0 l/m 0,0 km/h (0 Bft) W-NW 292 -2,0 C -1,3 C 0,0 km/h (0 Bft)
02.12.2023 10:58 14,8 C -1,3 C 1,0 C 3,7 C 51 % 95 % 1008,4 hPa 0,0 l/m 0,0 km/h (0 Bft) W-NW 292 -2,0 C -1,3 C 0,0 km/h (0 Bft)
02.12.2023 10:56 14,8 C -1,3 C 1,0 C 3,7 C 51 % 95 % 1008,4 hPa 0,0 l/m 0,0 km/h (0 Bft) W-NW 292 -2,0 C -1,3 C 0,0 km/h (0 Bft)
02.12.2023 10:54 14,8 C -1,2 C 1,0 C 3,7 C 50 % 95 % 1008,4 hPa 0,0 l/m 0,0 km/h (0 Bft) W-NW 292 -1,9 C -1,2 C 0,0 km/h (0 Bft)
02.12.2023 10:52 14,8 C -1,2 C 1,0 C 3,7 C 50 % 95 % 1008,4 hPa 0,0 l/m 0,0 km/h (0 Bft) W-NW 292 -1,9 C -1,2 C 0,0 km/h (0 Bft)
02.12.2023 10:50 14,8 C -1,2 C 1,0 C 3,7 C 50 % 95 % 1008,4 hPa 0,0 l/m 0,0 km/h (0 Bft) W-NW 292 -1,9 C -1,2 C 0,0 km/h (0 Bft)
02.12.2023 10:48 14,8 C -1,2 C 1,0 C 3,7 C 50 % 95 % 1008,1 hPa 0,0 l/m 0,0 km/h (0 Bft) W-NW 292 -1,9 C -1,2 C 0,0 km/h (0 Bft)
02.12.2023 10:46 14,8 C -1,2 C 1,0 C 3,7 C 50 % 95 % 1008,1 hPa 0,0 l/m 0,0 km/h (0 Bft) W-NW 292 -1,9 C -1,2 C 0,0 km/h (0 Bft)
02.12.2023 10:44 14,8 C -1,3 C 1,0 C 3,7 C 50 % 95 % 1008,1 hPa 0,0 l/m 0,0 km/h (0 Bft) W-NW 292 -2,0 C -1,3 C 0,0 km/h (0 Bft)
02.12.2023 10:42 14,8 C -1,3 C 1,0 C 3,7 C 50 % 95 % 1008,1 hPa 0,0 l/m 0,0 km/h (0 Bft) W-NW 292 -2,0 C -1,3 C 0,0 km/h (0 Bft)
02.12.2023 10:40 14,8 C -1,3 C 1,0 C 3,7 C 50 % 95 % 1008,1 hPa 0,0 l/m 0,0 km/h (0 Bft) W-NW 292 -2,0 C -1,3 C 0,0 km/h (0 Bft)
02.12.2023 10:38 14,9 C -1,2 C 1,0 C 3,7 C 50 % 95 % 1008,1 hPa 0,0 l/m 0,0 km/h (0 Bft) W-NW 292 -1,9 C -1,2 C 0,0 km/h (0 Bft)
02.12.2023 10:36 14,9 C -1,2 C 1,0 C 3,7 C 50 % 95 % 1008,1 hPa 0,0 l/m 0,0 km/h (0 Bft) W-NW 292 -1,9 C -1,2 C 0,0 km/h (0 Bft)
02.12.2023 10:34 14,8 C -1,2 C 1,0 C 3,7 C 50 % 95 % 1008,1 hPa 0,0 l/m 0,0 km/h (0 Bft) W-NW 292 -1,9 C -1,2 C 0,0 km/h (0 Bft)
02.12.2023 10:32 14,8 C -1,2 C 1,0 C 3,7 C 50 % 95 % 1008,1 hPa 0,0 l/m 0,0 km/h (0 Bft) W-NW 292 -1,9 C -1,2 C 0,0 km/h (0 Bft)
02.12.2023 10:30 14,8 C -1,2 C 1,0 C 3,7 C 50 % 95 % 1008,1 hPa 0,0 l/m 0,0 km/h (0 Bft) W-NW 292 -1,9 C -1,2 C 0,0 km/h (0 Bft)
02.12.2023 10:28 14,8 C -1,2 C 1,0 C 3,7 C 50 % 95 % 1009,1 hPa 0,0 l/m 0,0 km/h (0 Bft) W-NW 292 -1,9 C -1,2 C 0,0 km/h (0 Bft)
02.12.2023 10:26 14,8 C -1,2 C 1,0 C 3,7 C 50 % 95 % 1009,1 hPa 0,0 l/m 0,0 km/h (0 Bft) W-NW 292 -1,9 C -1,2 C 0,0 km/h (0 Bft)
02.12.2023 10:24 15,0 C -1,2 C 1,0 C 3,7 C 49 % 95 % 1009,1 hPa 0,0 l/m 0,0 km/h (0 Bft) W-NW 292 -1,9 C -1,2 C 0,0 km/h (0 Bft)
02.12.2023 10:22 15,0 C -1,2 C 1,0 C 3,7 C 49 % 95 % 1009,1 hPa 0,0 l/m 0,0 km/h (0 Bft) W-NW 292 -1,9 C -1,2 C 0,0 km/h (0 Bft)
02.12.2023 10:20 15,0 C -1,2 C 1,0 C 3,7 C 49 % 95 % 1009,1 hPa 0,0 l/m 0,0 km/h (0 Bft) W-NW 292 -1,9 C -1,2 C 0,0 km/h (0 Bft)
02.12.2023 09:54 15,1 C -0,9 C 1,0 C 3,7 C 51 % 96 % 1008,2 hPa 0,0 l/m 0,0 km/h (0 Bft) W-NW 292 -1,5 C -0,9 C 0,0 km/h (0 Bft)
02.12.2023 09:52 15,1 C -0,9 C 1,0 C 3,7 C 51 % 96 % 1008,2 hPa 0,0 l/m 0,0 km/h (0 Bft) W-NW 292 -1,5 C -0,9 C 0,0 km/h (0 Bft)
02.12.2023 09:50 15,1 C -0,9 C 1,0 C 3,7 C 51 % 96 % 1007,6 hPa 0,0 l/m 0,0 km/h (0 Bft) W-NW 292 -1,5 C -0,9 C 0,0 km/h (0 Bft)
02.12.2023 09:48 15,1 C -0,9 C 1,0 C 3,7 C 51 % 96 % 1007,6 hPa 0,0 l/m 0,0 km/h (0 Bft) W-NW 292 -1,5 C -0,9 C 0,0 km/h (0 Bft)
02.12.2023 09:46 15,1 C -0,8 C 1,0 C 3,7 C 51 % 96 % 1007,6 hPa 0,0 l/m 0,0 km/h (0 Bft) W-NW 292 -1,4 C -0,8 C 0,0 km/h (0 Bft)
02.12.2023 09:44 15,1 C -0,8 C 1,0 C 3,7 C 51 % 96 % 1007,6 hPa 0,0 l/m 0,0 km/h (0 Bft) W-NW 292 -1,4 C -0,8 C 0,0 km/h (0 Bft)
02.12.2023 09:42 15,1 C -0,8 C 1,0 C 3,7 C 51 % 96 % 1007,6 hPa 0,0 l/m 0,0 km/h (0 Bft) W-NW 292 -1,4 C -0,8 C 0,0 km/h (0 Bft)
02.12.2023 09:40 15,1 C -0,8 C 1,0 C 3,7 C 51 % 96 % 1007,6 hPa 0,0 l/m 0,0 km/h (0 Bft) W-NW 292 -1,4 C -0,8 C 0,0 km/h (0 Bft)
02.12.2023 09:38 15,1 C -0,8 C 1,0 C 3,7 C 51 % 96 % 1007,6 hPa 0,0 l/m 0,0 km/h (0 Bft) W-NW 292 -1,4 C -0,8 C 0,0 km/h (0 Bft)
02.12.2023 09:36 15,1 C -0,8 C 1,0 C 3,7 C 51 % 96 % 1007,6 hPa 0,0 l/m 0,0 km/h (0 Bft) W-NW 292 -1,4 C -0,8 C 0,0 km/h (0 Bft)
02.12.2023 09:34 15,1 C -0,8 C 1,0 C 3,7 C 51 % 96 % 1007,6 hPa 0,0 l/m 0,0 km/h (0 Bft) W-NW 292 -1,4 C -0,8 C 0,0 km/h (0 Bft)
02.12.2023 09:32 15,1 C -0,8 C 1,0 C 3,7 C 51 % 96 % 1007,6 hPa 0,0 l/m 0,0 km/h (0 Bft) W-NW 292 -1,4 C -0,8 C 0,0 km/h (0 Bft)
02.12.2023 09:30 15,1 C -0,8 C 1,0 C 3,7 C 51 % 96 % 1007,8 hPa 0,0 l/m 0,0 km/h (0 Bft) W-NW 292 -1,4 C -0,8 C 0,0 km/h (0 Bft)
02.12.2023 09:28 15,1 C -0,8 C 1,0 C 3,7 C 51 % 96 % 1007,8 hPa 0,0 l/m 0,0 km/h (0 Bft) W-NW 292 -1,4 C -0,8 C 0,0 km/h (0 Bft)
02.12.2023 09:26 15,2 C -0,8 C 1,0 C 3,7 C 51 % 96 % 1007,8 hPa 0,0 l/m 0,0 km/h (0 Bft) W-NW 292 -1,4 C -0,8 C 0,0 km/h (0 Bft)
02.12.2023 09:24 15,1 C -0,8 C 1,0 C 3,7 C 51 % 96 % 1007,8 hPa 0,0 l/m 0,0 km/h (0 Bft) W-NW 292 -1,4 C -0,8 C 0,0 km/h (0 Bft)
02.12.2023 09:22 15,1 C -0,8 C 1,0 C 3,7 C 51 % 96 % 1007,8 hPa 0,0 l/m 0,0 km/h (0 Bft) W-NW 292 -1,4 C -0,8 C 0,0 km/h (0 Bft)
02.12.2023 09:20 15,1 C -0,8 C 1,0 C 3,7 C 51 % 96 % 1007,8 hPa 0,0 l/m 0,0 km/h (0 Bft) W-NW 292 -1,4 C -0,8 C 0,0 km/h (0 Bft)
02.12.2023 09:18 15,1 C -0,8 C 1,0 C 3,7 C 51 % 96 % 1007,8 hPa 0,0 l/m 0,0 km/h (0 Bft) W-NW 292 -1,4 C -0,8 C 0,0 km/h (0 Bft)
02.12.2023 09:16 15,2 C -0,8 C 1,0 C 3,7 C 51 % 96 % 1007,8 hPa 0,0 l/m 0,0 km/h (0 Bft) W-NW 292 -1,4 C -0,8 C 0,0 km/h (0 Bft)
02.12.2023 09:14 15,1 C -0,8 C 1,0 C 3,7 C 51 % 96 % 1007,8 hPa 0,0 l/m 0,0 km/h (0 Bft) W-NW 292 -1,4 C -0,8 C 0,0 km/h (0 Bft)
02.12.2023 09:12 15,1 C -0,8 C 0,9 C 3,7 C 51 % 96 % 1007,8 hPa 0,0 l/m 0,0 km/h (0 Bft) W-NW 292 -1,4 C -0,8 C 0,0 km/h (0 Bft)
02.12.2023 09:10 15,2 C -0,8 C 0,9 C 3,7 C 51 % 96 % 1007,5 hPa 0,0 l/m 0,0 km/h (0 Bft) W-NW 292 -1,4 C -0,8 C 0,0 km/h (0 Bft)
02.12.2023 09:08 15,2 C -0,8 C 0,9 C 3,7 C 51 % 96 % 1007,5 hPa 0,0 l/m 0,0 km/h (0 Bft) W-NW 292 -1,4 C -0,8 C 0,0 km/h (0 Bft)
02.12.2023 09:06 15,2 C -0,8 C 0,9 C 3,7 C 51 % 96 % 1007,5 hPa 0,0 l/m 0,0 km/h (0 Bft) W-NW 292 -1,4 C -0,8 C 0,0 km/h (0 Bft)
02.12.2023 09:04 15,1 C -0,9 C 0,9 C 3,7 C 51 % 96 % 1007,5 hPa 0,0 l/m 0,0 km/h (0 Bft) W-NW 292 -1,5 C -0,9 C 0,0 km/h (0 Bft)
02.12.2023 09:02 15,2 C -0,9 C 0,9 C 3,7 C 51 % 96 % 1007,5 hPa 0,0 l/m 0,0 km/h (0 Bft) W-NW 292 -1,5 C -0,9 C 0,0 km/h (0 Bft)
02.12.2023 09:00 15,1 C -0,9 C 0,9 C 3,7 C 51 % 96 % 1007,5 hPa 0,0 l/m 0,0 km/h (0 Bft) W-NW 292 -1,5 C -0,9 C 0,0 km/h (0 Bft)
02.12.2023 08:58 15,1 C -0,9 C 0,9 C 3,7 C 51 % 96 % 1007,5 hPa 0,0 l/m 0,0 km/h (0 Bft) W-NW 292 -1,5 C -0,9 C 0,0 km/h (0 Bft)
02.12.2023 08:56 15,1 C -0,9 C 0,9 C 3,7 C 51 % 96 % 1007,5 hPa 0,0 l/m 0,0 km/h (0 Bft) W-NW 292 -1,5 C -0,9 C 0,0 km/h (0 Bft)
02.12.2023 08:54 15,1 C -0,9 C 0,9 C 3,7 C 51 % 96 % 1007,5 hPa 0,0 l/m 0,0 km/h (0 Bft) W-NW 292 -1,5 C -0,9 C 0,0 km/h (0 Bft)
02.12.2023 08:52 15,1 C -0,9 C 0,9 C 3,7 C 51 % 96 % 1007,5 hPa 0,0 l/m 0,0 km/h (0 Bft) W-NW 292 -1,5 C -0,9 C 0,0 km/h (0 Bft)
02.12.2023 08:50 15,1 C -0,9 C 0,9 C 3,7 C 51 % 96 % 1007,4 hPa 0,0 l/m 0,0 km/h (0 Bft) W-NW 292 -1,5 C -0,9 C 0,0 km/h (0 Bft)
02.12.2023 08:48 15,1 C -1,1 C 0,9 C 3,7 C 51 % 96 % 1007,4 hPa 0,0 l/m 0,0 km/h (0 Bft) W-NW 292 -1,7 C -1,1 C 0,0 km/h (0 Bft)
02.12.2023 08:46 15,1 C -1,1 C 0,9 C 3,7 C 52 % 96 % 1007,4 hPa 0,0 l/m 0,0 km/h (0 Bft) W-NW 292 -1,7 C -1,1 C 0,0 km/h (0 Bft)
02.12.2023 08:44 15,1 C -1,1 C 0,9 C 3,7 C 52 % 96 % 1007,4 hPa 0,0 l/m 0,0 km/h (0 Bft) W-NW 292 -1,7 C -1,1 C 0,0 km/h (0 Bft)
02.12.2023 08:42 14,9 C -1,1 C 0,9 C 3,7 C 52 % 96 % 1007,4 hPa 0,0 l/m 0,0 km/h (0 Bft) W-NW 292 -1,7 C -1,1 C 0,0 km/h (0 Bft)
02.12.2023 08:40 14,9 C -1,1 C 0,9 C 3,7 C 52 % 96 % 1007,4 hPa 0,0 l/m 0,0 km/h (0 Bft) W-NW 292 -1,7 C -1,1 C 0,0 km/h (0 Bft)
02.12.2023 08:38 15,0 C -1,1 C 0,9 C 3,7 C 52 % 96 % 1007,4 hPa 0,0 l/m 0,0 km/h (0 Bft) W-NW 292 -1,7 C -1,1 C 0,0 km/h (0 Bft)
02.12.2023 08:36 15,0 C -1,1 C 0,9 C 3,7 C 52 % 96 % 1007,4 hPa 0,0 l/m 0,0 km/h (0 Bft) W-NW 292 -1,7 C -1,1 C 0,0 km/h (0 Bft)
02.12.2023 08:34 15,0 C -1,1 C 0,9 C 3,7 C 52 % 96 % 1007,4 hPa 0,0 l/m 0,0 km/h (0 Bft) W-NW 292 -1,7 C -1,1 C 0,0 km/h (0 Bft)
02.12.2023 08:32 15,0 C -1,1 C 0,9 C 3,7 C 52 % 96 % 1007,4 hPa 0,0 l/m 0,0 km/h (0 Bft) W-NW 292 -1,7 C -1,1 C 0,0 km/h (0 Bft)
02.12.2023 08:30 15,0 C -1,1 C 0,9 C 3,7 C 52 % 96 % 1007,6 hPa 0,0 l/m 0,0 km/h (0 Bft) W-NW 292 -1,7 C -1,1 C 0,0 km/h (0 Bft)
02.12.2023 08:28 15,0 C -1,1 C 0,9 C 3,7 C 52 % 96 % 1007,6 hPa 0,0 l/m 0,0 km/h (0 Bft) W-NW 292 -1,7 C -1,1 C 0,0 km/h (0 Bft)
02.12.2023 08:26 14,8 C -1,1 C 0,9 C 3,7 C 52 % 96 % 1007,6 hPa 0,0 l/m 0,0 km/h (0 Bft) W-NW 292 -1,7 C -1,1 C 0,0 km/h (0 Bft)
02.12.2023 08:24 14,8 C -1,1 C 0,9 C 3,7 C 52 % 96 % 1007,6 hPa 0,0 l/m 0,0 km/h (0 Bft) W-NW 292 -1,7 C -1,1 C 0,0 km/h (0 Bft)
02.12.2023 08:22 14,8 C -1,2 C 0,9 C 3,7 C 52 % 96 % 1007,6 hPa 0,0 l/m 0,0 km/h (0 Bft) W-NW 292 -1,8 C -1,2 C 0,0 km/h (0 Bft)
02.12.2023 08:20 14,9 C -1,2 C 0,9 C 3,7 C 52 % 96 % 1007,6 hPa 0,0 l/m 0,0 km/h (0 Bft) W-NW 292 -1,8 C -1,2 C 0,0 km/h (0 Bft)
02.12.2023 08:18 14,8 C -1,2 C 0,9 C 3,7 C 52 % 96 % 1007,6 hPa 0,0 l/m 0,0 km/h (0 Bft) W-NW 292 -1,8 C -1,2 C 0,0 km/h (0 Bft)
02.12.2023 08:16 14,8 C -1,2 C 0,9 C 3,7 C 52 % 96 % 1007,6 hPa 0,0 l/m 0,0 km/h (0 Bft) W-NW 292 -1,8 C -1,2 C 0,0 km/h (0 Bft)
02.12.2023 08:14 14,8 C -1,2 C 0,9 C 3,7 C 52 % 96 % 1007,6 hPa 0,0 l/m 0,0 km/h (0 Bft) W-NW 292 -1,8 C -1,2 C 0,0 km/h (0 Bft)
02.12.2023 08:12 14,8 C -1,2 C 0,9 C 3,7 C 52 % 96 % 1007,6 hPa 0,0 l/m 0,0 km/h (0 Bft) W-NW 292 -1,8 C -1,2 C 0,0 km/h (0 Bft)
02.12.2023 08:10 14,8 C -1,2 C 0,9 C 3,7 C 52 % 96 % 1006,9 hPa 0,0 l/m 0,0 km/h (0 Bft) W-NW 292 -1,8 C -1,2 C 0,0 km/h (0 Bft)
02.12.2023 08:08 14,8 C -1,2 C 0,9 C 3,7 C 52 % 96 % 1006,9 hPa 0,0 l/m 0,0 km/h (0 Bft) W-NW 292 -1,8 C -1,2 C 0,0 km/h (0 Bft)
02.12.2023 08:06 14,8 C -1,2 C 0,9 C 3,7 C 52 % 96 % 1006,9 hPa 0,0 l/m 0,0 km/h (0 Bft) W-NW 292 -1,8 C -1,2 C 0,0 km/h (0 Bft)
02.12.2023 08:04 14,8 C -1,2 C 0,9 C 3,7 C 52 % 96 % 1006,9 hPa 0,0 l/m 0,0 km/h (0 Bft) W-NW 292 -1,8 C -1,2 C 0,0 km/h (0 Bft)
02.12.2023 08:02 14,7 C -1,2 C 0,9 C 3,7 C 52 % 96 % 1006,9 hPa 0,0 l/m 0,0 km/h (0 Bft) W-NW 292 -1,8 C -1,2 C 0,0 km/h (0 Bft)
02.12.2023 08:00 14,7 C -1,2 C 0,9 C 3,7 C 52 % 96 % 1006,9 hPa 0,0 l/m 0,0 km/h (0 Bft) W-NW 292 -1,8 C -1,2 C 0,0 km/h (0 Bft)
02.12.2023 07:58 14,7 C -1,2 C 0,9 C 3,7 C 52 % 96 % 1006,9 hPa 0,0 l/m 0,0 km/h (0 Bft) W-NW 292 -1,8 C -1,2 C 0,0 km/h (0 Bft)
02.12.2023 07:56 14,7 C -1,2 C 0,9 C 3,7 C 52 % 96 % 1006,9 hPa 0,0 l/m 0,0 km/h (0 Bft) W-NW 292 -1,8 C -1,2 C 0,0 km/h (0 Bft)
02.12.2023 07:54 14,6 C -1,2 C 0,9 C 3,7 C 52 % 96 % 1006,9 hPa 0,0 l/m 0,0 km/h (0 Bft) W-NW 292 -1,8 C -1,2 C 0,0 km/h (0 Bft)
02.12.2023 07:52 14,8 C -1,2 C 0,9 C 3,7 C 52 % 96 % 1006,9 hPa 0,0 l/m 0,0 km/h (0 Bft) W-NW 292 -1,8 C -1,2 C 0,0 km/h (0 Bft)
02.12.2023 07:50 14,8 C -1,2 C 0,9 C 3,7 C 52 % 96 % 1006,6 hPa 0,0 l/m 0,0 km/h (0 Bft) W-NW 292 -1,8 C -1,2 C 0,0 km/h (0 Bft)
02.12.2023 07:48 14,8 C -1,2 C 0,9 C 3,7 C 52 % 96 % 1006,6 hPa 0,0 l/m 0,0 km/h (0 Bft) W-NW 292 -1,8 C -1,2 C 0,0 km/h (0 Bft)
02.12.2023 07:46 14,8 C -1,2 C 0,9 C 3,7 C 52 % 96 % 1006,6 hPa 0,0 l/m 0,0 km/h (0 Bft) W-NW 292 -1,8 C -1,2 C 0,0 km/h (0 Bft)
02.12.2023 07:44 14,8 C -1,2 C 0,9 C 3,7 C 52 % 96 % 1006,6 hPa 0,0 l/m 0,0 km/h (0 Bft) W-NW 292 -1,8 C -1,2 C 0,0 km/h (0 Bft)
02.12.2023 07:42 14,8 C -1,2 C 0,9 C 3,7 C 52 % 96 % 1006,6 hPa 0,0 l/m 0,0 km/h (0 Bft) W-NW 292 -1,8 C -1,2 C 0,0 km/h (0 Bft)
02.12.2023 07:40 14,9 C -1,2 C 0,9 C 3,7 C 52 % 96 % 1006,6 hPa 0,0 l/m 0,0 km/h (0 Bft) W-NW 292 -1,8 C -1,2 C 0,0 km/h (0 Bft)
02.12.2023 07:38 14,8 C -1,2 C 0,9 C 3,7 C 52 % 96 % 1006,6 hPa 0,0 l/m 0,0 km/h (0 Bft) W-NW 292 -1,8 C -1,2 C 0,0 km/h (0 Bft)
02.12.2023 07:36 14,8 C -1,2 C 0,9 C 3,7 C 52 % 96 % 1006,6 hPa 0,0 l/m 0,0 km/h (0 Bft) W-NW 292 -1,8 C -1,2 C 0,0 km/h (0 Bft)
02.12.2023 07:34 14,8 C -1,2 C 0,9 C 3,7 C 52 % 96 % 1006,6 hPa 0,0 l/m 0,0 km/h (0 Bft) W-NW 292 -1,8 C -1,2 C 0,0 km/h (0 Bft)
02.12.2023 07:32 15,0 C -1,2 C 0,9 C 3,7 C 52 % 96 % 1006,6 hPa 0,0 l/m 0,0 km/h (0 Bft) W-NW 292 -1,8 C -1,2 C 0,0 km/h (0 Bft)
02.12.2023 07:30 15,0 C -1,2 C 0,9 C 3,7 C 52 % 96 % 1006,1 hPa 0,0 l/m 0,0 km/h (0 Bft) W-NW 292 -1,8 C -1,2 C 0,0 km/h (0 Bft)
02.12.2023 07:28 15,0 C -1,2 C 0,8 C 3,7 C 52 % 96 % 1006,1 hPa 0,0 l/m 0,0 km/h (0 Bft) W-NW 292 -1,8 C -1,2 C 0,0 km/h (0 Bft)
02.12.2023 07:26 15,0 C -1,2 C 0,8 C 3,7 C 52 % 96 % 1006,1 hPa 0,0 l/m 0,0 km/h (0 Bft) W-NW 292 -1,8 C -1,2 C 0,0 km/h (0 Bft)
02.12.2023 07:24 14,9 C -1,2 C 0,9 C 3,7 C 51 % 96 % 1006,1 hPa 0,0 l/m 0,0 km/h (0 Bft) W-NW 292 -1,8 C -1,2 C 0,0 km/h (0 Bft)
02.12.2023 07:22 15,1 C -1,1 C 0,8 C 3,7 C 52 % 96 % 1006,1 hPa 0,0 l/m 0,0 km/h (0 Bft) W-NW 292 -1,7 C -1,1 C 0,0 km/h (0 Bft)
02.12.2023 07:20 15,1 C -1,1 C 0,8 C 3,7 C 51 % 96 % 1006,1 hPa 0,0 l/m 0,0 km/h (0 Bft) W-NW 292 -1,7 C -1,1 C 0,0 km/h (0 Bft)
02.12.2023 07:18 15,1 C -1,1 C 0,8 C 3,7 C 51 % 96 % 1006,1 hPa 0,0 l/m 0,0 km/h (0 Bft) W-NW 292 -1,7 C -1,1 C 0,0 km/h (0 Bft)
02.12.2023 07:16 15,1 C -1,1 C 0,8 C 3,7 C 51 % 96 % 1006,1 hPa 0,0 l/m 0,0 km/h (0 Bft) W-NW 292 -1,7 C -1,1 C 0,0 km/h (0 Bft)
02.12.2023 07:14 15,2 C -1,1 C 0,8 C 3,7 C 51 % 96 % 1006,1 hPa 0,0 l/m 0,0 km/h (0 Bft) W-NW 292 -1,7 C -1,1 C 0,0 km/h (0 Bft)
02.12.2023 07:12 15,2 C -1,1 C 0,8 C 3,7 C 51 % 96 % 1006,1 hPa 0,0 l/m 0,0 km/h (0 Bft) W-NW 292 -1,7 C -1,1 C 0,0 km/h (0 Bft)
02.12.2023 07:10 15,2 C -1,1 C 0,8 C 3,7 C 51 % 96 % 1006,4 hPa 0,0 l/m 0,0 km/h (0 Bft) W-NW 292 -1,7 C -1,1 C 0,0 km/h (0 Bft)
02.12.2023 07:08 15,1 C -1,1 C 0,9 C 3,7 C 51 % 96 % 1006,4 hPa 0,0 l/m 0,0 km/h (0 Bft) W-NW 292 -1,7 C -1,1 C 0,0 km/h (0 Bft)
02.12.2023 07:06 15,1 C -1,1 C 0,8 C 3,7 C 51 % 96 % 1006,4 hPa 0,0 l/m 0,0 km/h (0 Bft) W-NW 292 -1,7 C -1,1 C 0,0 km/h (0 Bft)
02.12.2023 07:04 15,1 C -1,1 C 0,8 C 3,7 C 51 % 96 % 1006,4 hPa 0,0 l/m 0,0 km/h (0 Bft) W-NW 292 -1,7 C -1,1 C 0,0 km/h (0 Bft)
02.12.2023 07:02 15,3 C -1,1 C 0,8 C 3,7 C 51 % 96 % 1006,4 hPa 0,0 l/m 0,0 km/h (0 Bft) W-NW 292 -1,7 C -1,1 C 0,0 km/h (0 Bft)
02.12.2023 07:00 15,2 C -1,1 C 0,8 C 3,7 C 51 % 96 % 1006,4 hPa 0,0 l/m 0,0 km/h (0 Bft) W-NW 292 -1,7 C -1,1 C 0,0 km/h (0 Bft)
02.12.2023 06:58 15,2 C -1,1 C 0,8 C 3,7 C 51 % 96 % 1006,4 hPa 0,0 l/m 0,0 km/h (0 Bft) W-NW 292 -1,7 C -1,1 C 0,0 km/h (0 Bft)
02.12.2023 06:56 15,4 C -1,1 C 0,8 C 3,7 C 51 % 96 % 1006,4 hPa 0,0 l/m 0,0 km/h (0 Bft) W-NW 292 -1,7 C -1,1 C 0,0 km/h (0 Bft)
02.12.2023 06:54 15,4 C -1,1 C 0,8 C 3,7 C 51 % 96 % 1006,4 hPa 0,0 l/m 0,0 km/h (0 Bft) W-NW 292 -1,7 C -1,1 C 0,0 km/h (0 Bft)
02.12.2023 06:52 15,4 C -1,1 C 0,8 C 3,7 C 51 % 96 % 1006,4 hPa 0,0 l/m 0,0 km/h (0 Bft) W-NW 292 -1,7 C -1,1 C 0,0 km/h (0 Bft)
02.12.2023 06:50 15,4 C -1,1 C 0,8 C 3,7 C 51 % 96 % 1005,9 hPa 0,0 l/m 0,0 km/h (0 Bft) W-NW 292 -1,7 C -1,1 C 0,0 km/h (0 Bft)
02.12.2023 06:48 15,4 C -1,1 C 0,8 C 3,7 C 51 % 96 % 1005,9 hPa 0,0 l/m 0,0 km/h (0 Bft) W-NW 292 -1,7 C -1,1 C 0,0 km/h (0 Bft)
02.12.2023 06:46 15,5 C -0,9 C 0,8 C 3,7 C 51 % 96 % 1005,9 hPa 0,0 l/m 0,0 km/h (0 Bft) W-NW 292 -1,5 C -0,9 C 0,0 km/h (0 Bft)
02.12.2023 06:44 15,5 C -0,9 C 0,8 C 3,7 C 51 % 96 % 1005,9 hPa 0,0 l/m 0,0 km/h (0 Bft) W-NW 292 -1,5 C -0,9 C 0,0 km/h (0 Bft)
02.12.2023 06:42 15,5 C -0,9 C 0,8 C 3,7 C 51 % 96 % 1005,9 hPa 0,0 l/m 0,0 km/h (0 Bft) W-NW 292 -1,5 C -0,9 C 0,0 km/h (0 Bft)
02.12.2023 06:40 15,5 C -0,9 C 0,8 C 3,7 C 51 % 96 % 1005,9 hPa 0,0 l/m 0,0 km/h (0 Bft) W-NW 292 -1,5 C -0,9 C 0,0 km/h (0 Bft)
02.12.2023 06:38 15,4 C -0,9 C 0,8 C 3,7 C 51 % 96 % 1005,9 hPa 0,0 l/m 0,0 km/h (0 Bft) W-NW 292 -1,5 C -0,9 C 0,0 km/h (0 Bft)
02.12.2023 06:36 15,6 C -0,4 C -1,1 C 5,1 C 51 % 93 % 1005,9 hPa 0,0 l/m 0,0 km/h (0 Bft) W-NW 292 -1,4 C -0,4 C 0,0 km/h (0 Bft)
02.12.2023 06:35 15,6 C -0,4 C -1,1 C 5,1 C 51 % 93 % 1005,9 hPa 0,0 l/m 0,0 km/h (0 Bft) W-NW 292 -1,4 C -0,4 C 0,0 km/h (0 Bft)
02.12.2023 06:24 15,6 C -0,9 C 0,8 C 3,7 C 51 % 96 % 1005,6 hPa 0,0 l/m 0,0 km/h (0 Bft) W-NW 292 -1,5 C -0,9 C 0,0 km/h (0 Bft)
02.12.2023 06:22 15,6 C -0,9 C 0,8 C 3,7 C 51 % 96 % 1005,6 hPa 0,0 l/m 0,0 km/h (0 Bft) W-NW 292 -1,5 C -0,9 C 0,0 km/h (0 Bft)
02.12.2023 06:20 15,6 C -0,9 C 0,8 C 3,7 C 51 % 96 % 1005,6 hPa 0,0 l/m 0,0 km/h (0 Bft) W-NW 292 -1,5 C -0,9 C 0,0 km/h (0 Bft)
02.12.2023 06:18 15,6 C -0,9 C 0,8 C 3,7 C 51 % 96 % 1005,6 hPa 0,0 l/m 0,0 km/h (0 Bft) W-NW 292 -1,5 C -0,9 C 0,0 km/h (0 Bft)
02.12.2023 06:16 15,6 C -0,9 C 0,8 C 3,7 C 51 % 96 % 1005,6 hPa 0,0 l/m 0,0 km/h (0 Bft) W-NW 292 -1,5 C -0,9 C 0,0 km/h (0 Bft)
02.12.2023 06:15 15,7 C -0,9 C 0,8 C 3,7 C 51 % 96 % 1005,6 hPa 0,0 l/m 0,0 km/h (0 Bft) W-NW 292 -1,5 C -0,9 C 0,0 km/h (0 Bft)
02.12.2023 06:12 15,6 C -0,8 C 0,8 C 3,7 C 51 % 96 % 1005,6 hPa 0,0 l/m 0,0 km/h (0 Bft) W-NW 292 -1,4 C -0,8 C 0,0 km/h (0 Bft)
02.12.2023 06:10 15,6 C -0,8 C 0,8 C 3,7 C 51 % 96 % 1005,6 hPa 0,0 l/m 0,0 km/h (0 Bft) W-NW 292 -1,4 C -0,8 C 0,0 km/h (0 Bft)
02.12.2023 06:08 15,6 C -0,8 C 0,8 C 3,7 C 51 % 96 % 1005,6 hPa 0,0 l/m 0,0 km/h (0 Bft) N 360 -1,4 C -0,8 C 0,0 km/h (0 Bft)
02.12.2023 06:04 15,7 C -0,8 C 0,8 C 3,7 C 51 % 96 % 1006,2 hPa 0,0 l/m 0,0 km/h (0 Bft) W-NW 292 -1,4 C -0,8 C 0,0 km/h (0 Bft)
02.12.2023 06:02 15,7 C -0,8 C 0,8 C 3,7 C 51 % 96 % 1006,2 hPa 0,0 l/m 0,0 km/h (0 Bft) W-NW 292 -1,4 C -0,8 C 0,0 km/h (0 Bft)
02.12.2023 06:00 15,6 C -0,8 C 0,8 C 3,7 C 51 % 96 % 1006,2 hPa 0,0 l/m 0,0 km/h (0 Bft) W-NW 292 -1,4 C -0,8 C 0,0 km/h (0 Bft)
02.12.2023 05:58 15,6 C -0,8 C 0,8 C 3,7 C 51 % 96 % 1006,2 hPa 0,0 l/m 0,0 km/h (0 Bft) W-NW 292 -1,4 C -0,8 C 0,0 km/h (0 Bft)
02.12.2023 05:56 15,7 C -0,8 C 0,8 C 3,7 C 51 % 96 % 1006,2 hPa 0,0 l/m 0,0 km/h (0 Bft) W-NW 292 -1,4 C -0,8 C 0,0 km/h (0 Bft)
02.12.2023 05:54 15,7 C -0,8 C 0,8 C 3,7 C 51 % 96 % 1006,2 hPa 0,0 l/m 0,0 km/h (0 Bft) W-NW 292 -1,4 C -0,8 C 0,0 km/h (0 Bft)
02.12.2023 05:52 15,6 C -0,8 C 0,8 C 3,7 C 51 % 96 % 1006,2 hPa 0,0 l/m 0,0 km/h (0 Bft) W-NW 292 -1,4 C -0,8 C 0,0 km/h (0 Bft)
02.12.2023 05:50 15,6 C -0,8 C 0,8 C 3,7 C 51 % 96 % 1006,0 hPa 0,0 l/m 0,0 km/h (0 Bft) W-NW 292 -1,4 C -0,8 C 0,0 km/h (0 Bft)
02.12.2023 05:48 15,6 C -0,8 C 0,8 C 3,7 C 51 % 96 % 1006,0 hPa 0,0 l/m 0,0 km/h (0 Bft) W-NW 292 -1,4 C -0,8 C 0,0 km/h (0 Bft)
02.12.2023 05:46 15,6 C -0,8 C 0,8 C 3,7 C 51 % 96 % 1006,0 hPa 0,0 l/m 0,0 km/h (0 Bft) W-NW 292 -1,4 C -0,8 C 0,0 km/h (0 Bft)
02.12.2023 05:44 15,6 C -0,8 C 0,8 C 3,7 C 51 % 96 % 1006,0 hPa 0,0 l/m 0,0 km/h (0 Bft) W-NW 292 -1,4 C -0,8 C 0,0 km/h (0 Bft)
02.12.2023 05:42 15,6 C -0,8 C 0,8 C 3,7 C 51 % 96 % 1006,0 hPa 0,0 l/m 0,0 km/h (0 Bft) W-NW 292 -1,4 C -0,8 C 0,0 km/h (0 Bft)
02.12.2023 05:40 15,6 C -0,8 C 0,8 C 3,7 C 51 % 96 % 1006,0 hPa 0,0 l/m 0,0 km/h (0 Bft) W-NW 292 -1,4 C -0,8 C 0,0 km/h (0 Bft)
02.12.2023 05:38 15,6 C -0,8 C 0,8 C 3,7 C 51 % 96 % 1006,0 hPa 0,0 l/m 0,0 km/h (0 Bft) W-NW 292 -1,4 C -0,8 C 0,0 km/h (0 Bft)
02.12.2023 05:36 15,6 C -0,8 C 0,8 C 3,7 C 51 % 96 % 1006,0 hPa 0,0 l/m 0,0 km/h (0 Bft) W-NW 292 -1,4 C -0,8 C 0,0 km/h (0 Bft)
02.12.2023 05:34 15,7 C -0,8 C 0,8 C 3,7 C 51 % 96 % 1006,0 hPa 0,0 l/m 0,0 km/h (0 Bft) W-NW 292 -1,4 C -0,8 C 0,0 km/h (0 Bft)
02.12.2023 05:32 15,6 C -0,8 C 0,8 C 3,7 C 51 % 96 % 1006,0 hPa 0,0 l/m 0,0 km/h (0 Bft) W-NW 292 -1,4 C -0,8 C 0,0 km/h (0 Bft)
02.12.2023 05:30 15,6 C -0,8 C 0,8 C 3,7 C 51 % 96 % 1005,9 hPa 0,0 l/m 0,0 km/h (0 Bft) W-NW 292 -1,4 C -0,8 C 0,0 km/h (0 Bft)
02.12.2023 05:28 15,6 C -0,8 C 0,8 C 3,7 C 51 % 96 % 1005,9 hPa 0,0 l/m 0,0 km/h (0 Bft) W-NW 292 -1,4 C -0,8 C 0,0 km/h (0 Bft)
02.12.2023 05:26 15,6 C -0,8 C 0,8 C 3,7 C 51 % 96 % 1005,9 hPa 0,0 l/m 0,0 km/h (0 Bft) W-NW 292 -1,4 C -0,8 C 0,0 km/h (0 Bft)
02.12.2023 05:24 15,6 C -0,8 C 0,8 C 3,7 C 51 % 96 % 1005,9 hPa 0,0 l/m 0,0 km/h (0 Bft) W-NW 292 -1,4 C -0,8 C 0,0 km/h (0 Bft)
02.12.2023 05:22 15,6 C -0,8 C 0,8 C 3,7 C 51 % 96 % 1005,9 hPa 0,0 l/m 0,0 km/h (0 Bft) W-NW 292 -1,4 C -0,8 C 0,0 km/h (0 Bft)
02.12.2023 05:20 15,6 C -0,8 C 0,8 C 3,7 C 51 % 96 % 1005,9 hPa 0,0 l/m 0,0 km/h (0 Bft) W-NW 292 -1,4 C -0,8 C 0,0 km/h (0 Bft)
02.12.2023 05:18 15,8 C -0,8 C 0,8 C 3,7 C 51 % 96 % 1005,9 hPa 0,0 l/m 0,0 km/h (0 Bft) W-NW 292 -1,4 C -0,8 C 0,0 km/h (0 Bft)
02.12.2023 05:16 15,8 C -0,8 C 0,8 C 3,8 C 51 % 96 % 1005,9 hPa 0,0 l/m 0,0 km/h (0 Bft) W-NW 292 -1,4 C -0,8 C 0,0 km/h (0 Bft)
02.12.2023 05:14 15,8 C -0,8 C 0,8 C 3,8 C 51 % 96 % 1005,9 hPa 0,0 l/m 0,0 km/h (0 Bft) W-NW 292 -1,4 C -0,8 C 0,0 km/h (0 Bft)
02.12.2023 05:12 15,8 C -0,8 C 0,8 C 3,8 C 51 % 96 % 1005,9 hPa 0,0 l/m 0,0 km/h (0 Bft) W-NW 292 -1,4 C -0,8 C 0,0 km/h (0 Bft)
02.12.2023 05:10 15,8 C -0,8 C 0,8 C 3,8 C 51 % 96 % 1005,8 hPa 0,0 l/m 0,0 km/h (0 Bft) W-NW 292 -1,4 C -0,8 C 0,0 km/h (0 Bft)
02.12.2023 05:08 15,8 C -0,8 C 0,8 C 3,8 C 51 % 96 % 1005,8 hPa 0,0 l/m 0,0 km/h (0 Bft) W-NW 292 -1,4 C -0,8 C 0,0 km/h (0 Bft)
02.12.2023 05:06 15,8 C -0,8 C 0,8 C 3,8 C 51 % 96 % 1005,8 hPa 0,0 l/m 0,0 km/h (0 Bft) W-NW 292 -1,4 C -0,8 C 0,0 km/h (0 Bft)
02.12.2023 05:04 15,8 C -0,8 C 0,8 C 3,8 C 51 % 96 % 1005,8 hPa 0,0 l/m 0,0 km/h (0 Bft) W-NW 292 -1,4 C -0,8 C 0,0 km/h (0 Bft)
02.12.2023 05:02 15,8 C -0,8 C 0,8 C 3,8 C 51 % 96 % 1005,8 hPa 0,0 l/m 0,0 km/h (0 Bft) W-NW 292 -1,4 C -0,8 C 0,0 km/h (0 Bft)
02.12.2023 05:00 15,8 C -0,8 C 0,8 C 3,8 C 51 % 96 % 1005,8 hPa 0,0 l/m 0,0 km/h (0 Bft) W-NW 292 -1,4 C -0,8 C 0,0 km/h (0 Bft)
02.12.2023 04:58 15,9 C -0,8 C 0,8 C 3,8 C 51 % 96 % 1005,8 hPa 0,0 l/m 0,0 km/h (0 Bft) W-NW 292 -1,4 C -0,8 C 0,0 km/h (0 Bft)
02.12.2023 04:56 15,9 C -0,8 C 0,8 C 3,8 C 51 % 96 % 1005,8 hPa 0,0 l/m 0,0 km/h (0 Bft) W-NW 292 -1,4 C -0,8 C 0,0 km/h (0 Bft)
02.12.2023 04:54 15,9 C -0,8 C 0,8 C 3,8 C 51 % 96 % 1005,8 hPa 0,0 l/m 0,0 km/h (0 Bft) W-NW 292 -1,4 C -0,8 C 0,0 km/h (0 Bft)
02.12.2023 04:52 15,9 C -0,8 C 0,8 C 3,8 C 51 % 96 % 1005,8 hPa 0,0 l/m 0,0 km/h (0 Bft) W-NW 292 -1,4 C -0,8 C 0,0 km/h (0 Bft)
02.12.2023 04:50 15,8 C -0,8 C 0,8 C 3,8 C 51 % 96 % 1005,9 hPa 0,0 l/m 0,0 km/h (0 Bft) W-NW 292 -1,4 C -0,8 C 0,0 km/h (0 Bft)
02.12.2023 04:48 15,8 C -0,8 C 0,8 C 3,8 C 51 % 96 % 1005,9 hPa 0,0 l/m 0,0 km/h (0 Bft) W-NW 292 -1,4 C -0,8 C 0,0 km/h (0 Bft)
02.12.2023 04:46 15,8 C -0,8 C 0,8 C 3,8 C 51 % 96 % 1005,9 hPa 0,0 l/m 0,0 km/h (0 Bft) W-NW 292 -1,4 C -0,8 C 0,0 km/h (0 Bft)
02.12.2023 04:44 15,8 C -0,8 C 0,8 C 3,8 C 51 % 96 % 1005,9 hPa 0,0 l/m 0,0 km/h (0 Bft) W-NW 292 -1,4 C -0,8 C 0,0 km/h (0 Bft)
02.12.2023 04:42 15,8 C -0,8 C 0,8 C 3,8 C 51 % 96 % 1005,9 hPa 0,0 l/m 0,0 km/h (0 Bft) W-NW 292 -1,4 C -0,8 C 0,0 km/h (0 Bft)
02.12.2023 04:40 16,0 C -0,8 C 0,8 C 3,8 C 51 % 96 % 1005,9 hPa 0,0 l/m 0,0 km/h (0 Bft) W-NW 292 -1,4 C -0,8 C 0,0 km/h (0 Bft)
02.12.2023 04:38 16,0 C -0,8 C 0,8 C 3,8 C 51 % 96 % 1005,9 hPa 0,0 l/m 0,0 km/h (0 Bft) W-NW 292 -1,4 C -0,8 C 0,0 km/h (0 Bft)
02.12.2023 04:36 16,0 C -0,8 C 0,8 C 3,8 C 51 % 96 % 1005,9 hPa 0,0 l/m 0,0 km/h (0 Bft) W-NW 292 -1,4 C -0,8 C 0,0 km/h (0 Bft)
02.12.2023 04:34 16,0 C -0,8 C 0,8 C 3,8 C 51 % 96 % 1005,9 hPa 0,0 l/m 0,0 km/h (0 Bft) W-NW 292 -1,4 C -0,8 C 0,0 km/h (0 Bft)
02.12.2023 04:32 16,0 C -0,8 C 0,8 C 3,8 C 51 % 96 % 1005,9 hPa 0,0 l/m 0,0 km/h (0 Bft) W-NW 292 -1,4 C -0,8 C 0,0 km/h (0 Bft)
02.12.2023 04:30 16,0 C -0,8 C 0,8 C 3,8 C 51 % 96 % 1005,6 hPa 0,0 l/m 0,0 km/h (0 Bft) W-NW 292 -1,4 C -0,8 C 0,0 km/h (0 Bft)
02.12.2023 04:28 16,0 C -0,8 C 0,8 C 3,8 C 51 % 96 % 1005,6 hPa 0,0 l/m 0,0 km/h (0 Bft) W-NW 292 -1,4 C -0,8 C 0,0 km/h (0 Bft)
02.12.2023 04:26 16,0 C -0,8 C 0,8 C 3,8 C 51 % 96 % 1005,6 hPa 0,0 l/m 0,0 km/h (0 Bft) W-NW 292 -1,4 C -0,8 C 0,0 km/h (0 Bft)
02.12.2023 04:24 15,8 C -0,8 C 0,8 C 3,8 C 51 % 96 % 1005,6 hPa 0,0 l/m 0,0 km/h (0 Bft) W-NW 292 -1,4 C -0,8 C 0,0 km/h (0 Bft)
02.12.2023 04:22 15,8 C -0,8 C 0,8 C 3,8 C 51 % 96 % 1005,6 hPa 0,0 l/m 0,0 km/h (0 Bft) W-NW 292 -1,4 C -0,8 C 0,0 km/h (0 Bft)
02.12.2023 04:20 15,8 C -0,8 C 0,8 C 3,8 C 51 % 96 % 1005,6 hPa 0,0 l/m 0,0 km/h (0 Bft) W-NW 292 -1,4 C -0,8 C 0,0 km/h (0 Bft)
02.12.2023 04:18 15,8 C -0,8 C 0,8 C 3,8 C 51 % 96 % 1005,6 hPa 0,0 l/m 0,0 km/h (0 Bft) W-NW 292 -1,4 C -0,8 C 0,0 km/h (0 Bft)
02.12.2023 04:16 15,8 C -0,8 C 0,8 C 3,8 C 51 % 96 % 1005,6 hPa 0,0 l/m 0,0 km/h (0 Bft) W-NW 292 -1,4 C -0,8 C 0,0 km/h (0 Bft)
02.12.2023 04:14 15,9 C -0,8 C 0,8 C 3,8 C 51 % 96 % 1005,6 hPa 0,0 l/m 0,0 km/h (0 Bft) W-NW 292 -1,4 C -0,8 C 0,0 km/h (0 Bft)
02.12.2023 04:12 15,9 C -0,8 C 0,8 C 3,8 C 51 % 96 % 1005,6 hPa 0,0 l/m 0,0 km/h (0 Bft) W-NW 292 -1,4 C -0,8 C 0,0 km/h (0 Bft)
02.12.2023 04:10 15,8 C -0,8 C 0,8 C 3,8 C 51 % 96 % 1005,5 hPa 0,0 l/m 0,0 km/h (0 Bft) W-NW 292 -1,4 C -0,8 C 0,0 km/h (0 Bft)
02.12.2023 04:08 15,8 C -0,8 C 0,8 C 3,8 C 51 % 96 % 1005,5 hPa 0,0 l/m 0,0 km/h (0 Bft) W-NW 292 -1,4 C -0,8 C 0,0 km/h (0 Bft)
02.12.2023 04:06 15,9 C -0,8 C 0,8 C 3,8 C 51 % 96 % 1005,5 hPa 0,0 l/m 0,0 km/h (0 Bft) W-NW 292 -1,4 C -0,8 C 0,0 km/h (0 Bft)
02.12.2023 04:04 15,9 C -0,8 C 0,8 C 3,8 C 51 % 96 % 1005,5 hPa 0,0 l/m 0,0 km/h (0 Bft) W-NW 292 -1,4 C -0,8 C 0,0 km/h (0 Bft)
02.12.2023 04:02 15,9 C -0,8 C 0,8 C 3,8 C 51 % 96 % 1005,5 hPa 0,0 l/m 0,0 km/h (0 Bft) W-NW 292 -1,4 C -0,8 C 0,0 km/h (0 Bft)
02.12.2023 04:00 15,9 C -0,8 C 0,8 C 3,8 C 51 % 96 % 1005,5 hPa 0,0 l/m 0,0 km/h (0 Bft) W-NW 292 -1,4 C -0,8 C 0,0 km/h (0 Bft)
02.12.2023 03:58 15,9 C -0,8 C 0,8 C 3,8 C 51 % 96 % 1005,5 hPa 0,0 l/m 0,0 km/h (0 Bft) W-NW 292 -1,4 C -0,8 C 0,0 km/h (0 Bft)
02.12.2023 03:56 15,8 C -0,8 C 0,8 C 3,8 C 51 % 96 % 1005,5 hPa 0,0 l/m 0,0 km/h (0 Bft) W-NW 292 -1,4 C -0,8 C 0,0 km/h (0 Bft)
02.12.2023 03:54 15,8 C -0,8 C 0,8 C 3,8 C 51 % 96 % 1005,5 hPa 0,0 l/m 0,0 km/h (0 Bft) W-NW 292 -1,4 C -0,8 C 0,0 km/h (0 Bft)
02.12.2023 03:52 15,9 C -0,8 C 0,8 C 3,8 C 51 % 96 % 1005,5 hPa 0,0 l/m 0,0 km/h (0 Bft) W-NW 292 -1,4 C -0,8 C 0,0 km/h (0 Bft)
02.12.2023 03:50 15,9 C -0,8 C 0,8 C 3,8 C 51 % 96 % 1005,6 hPa 0,0 l/m 0,0 km/h (0 Bft) W-NW 292 -1,4 C -0,8 C 0,0 km/h (0 Bft)
02.12.2023 03:48 15,9 C -0,8 C 0,8 C 3,8 C 51 % 96 % 1005,6 hPa 0,0 l/m 0,0 km/h (0 Bft) W-NW 292 -1,4 C -0,8 C 0,0 km/h (0 Bft)
02.12.2023 03:46 15,9 C -0,8 C 0,8 C 3,8 C 51 % 96 % 1005,6 hPa 0,0 l/m 0,0 km/h (0 Bft) W-NW 292 -1,4 C -0,8 C 0,0 km/h (0 Bft)
02.12.2023 03:44 15,9 C -0,8 C 0,8 C 3,8 C 51 % 96 % 1005,6 hPa 0,0 l/m 0,0 km/h (0 Bft) W-NW 292 -1,4 C -0,8 C 0,0 km/h (0 Bft)
02.12.2023 03:42 15,9 C -0,8 C 0,8 C 3,8 C 51 % 96 % 1005,6 hPa 0,0 l/m 0,0 km/h (0 Bft) W-NW 292 -1,4 C -0,8 C 0,0 km/h (0 Bft)
02.12.2023 03:40 15,8 C -0,8 C 0,8 C 3,8 C 51 % 96 % 1005,6 hPa 0,0 l/m 0,0 km/h (0 Bft) W-NW 292 -1,4 C -0,8 C 0,0 km/h (0 Bft)
02.12.2023 03:38 15,8 C -0,8 C 0,8 C 3,8 C 51 % 96 % 1005,6 hPa 0,0 l/m 0,0 km/h (0 Bft) W-NW 292 -1,4 C -0,8 C 0,0 km/h (0 Bft)
02.12.2023 03:36 16,0 C -0,8 C 0,8 C 3,8 C 51 % 96 % 1005,6 hPa 0,0 l/m 0,0 km/h (0 Bft) W-NW 292 -1,4 C -0,8 C 0,0 km/h (0 Bft)
02.12.2023 03:34 16,0 C -0,8 C 0,8 C 3,8 C 51 % 96 % 1005,6 hPa 0,0 l/m 0,0 km/h (0 Bft) W-NW 292 -1,4 C -0,8 C 0,0 km/h (0 Bft)
02.12.2023 03:32 16,0 C -0,8 C 0,8 C 3,8 C 51 % 96 % 1005,6 hPa 0,0 l/m 0,0 km/h (0 Bft) W-NW 292 -1,4 C -0,8 C 0,0 km/h (0 Bft)
02.12.2023 03:30 16,0 C -0,8 C 0,8 C 3,8 C 51 % 96 % 1005,7 hPa 0,0 l/m 0,0 km/h (0 Bft) W-NW 292 -1,4 C -0,8 C 0,0 km/h (0 Bft)
02.12.2023 03:28 16,0 C -0,8 C 0,8 C 3,8 C 51 % 96 % 1005,7 hPa 0,0 l/m 0,0 km/h (0 Bft) W-NW 292 -1,4 C -0,8 C 0,0 km/h (0 Bft)
02.12.2023 03:26 16,0 C -0,8 C 0,8 C 3,8 C 51 % 96 % 1005,7 hPa 0,0 l/m 0,0 km/h (0 Bft) W-NW 292 -1,4 C -0,8 C 0,0 km/h (0 Bft)
02.12.2023 03:24 15,9 C -0,8 C 0,8 C 3,8 C 51 % 96 % 1005,7 hPa 0,0 l/m 0,0 km/h (0 Bft) W-NW 292 -1,4 C -0,8 C 0,0 km/h (0 Bft)
02.12.2023 03:22 15,9 C -0,8 C 0,8 C 3,8 C 51 % 96 % 1005,7 hPa 0,0 l/m 0,0 km/h (0 Bft) W-NW 292 -1,4 C -0,8 C 0,0 km/h (0 Bft)
02.12.2023 03:20 15,9 C -0,8 C 0,8 C 3,8 C 51 % 96 % 1005,7 hPa 0,0 l/m 0,0 km/h (0 Bft) W-NW 292 -1,4 C -0,8 C 0,0 km/h (0 Bft)
02.12.2023 03:18 15,9 C -0,8 C 0,8 C 3,8 C 51 % 96 % 1005,7 hPa 0,0 l/m 0,0 km/h (0 Bft) W-NW 292 -1,4 C -0,8 C 0,0 km/h (0 Bft)
02.12.2023 03:16 15,9 C -0,8 C 0,8 C 3,8 C 51 % 96 % 1005,7 hPa 0,0 l/m 0,0 km/h (0 Bft) W-NW 292 -1,4 C -0,8 C 0,0 km/h (0 Bft)
02.12.2023 03:14 15,9 C -0,8 C 0,8 C 3,8 C 51 % 96 % 1005,7 hPa 0,0 l/m 0,0 km/h (0 Bft) W-NW 292 -1,4 C -0,8 C 0,0 km/h (0 Bft)
02.12.2023 03:12 16,1 C -0,8 C 0,8 C 3,8 C 51 % 96 % 1005,7 hPa 0,0 l/m 0,0 km/h (0 Bft) W-NW 292 -1,4 C -0,8 C 0,0 km/h (0 Bft)
02.12.2023 03:10 16,1 C -0,8 C 0,8 C 3,8 C 51 % 96 % 1005,9 hPa 0,0 l/m 0,0 km/h (0 Bft) W-NW 292 -1,4 C -0,8 C 0,0 km/h (0 Bft)
02.12.2023 03:08 16,1 C -0,8 C 0,8 C 3,8 C 51 % 96 % 1005,9 hPa 0,0 l/m 0,0 km/h (0 Bft) W-NW 292 -1,4 C -0,8 C 0,0 km/h (0 Bft)
02.12.2023 03:06 16,1 C -0,8 C 0,8 C 3,8 C 51 % 96 % 1005,9 hPa 0,0 l/m 0,0 km/h (0 Bft) W-NW 292 -1,4 C -0,8 C 0,0 km/h (0 Bft)
02.12.2023 03:04 16,1 C -0,8 C 0,8 C 3,8 C 51 % 96 % 1005,9 hPa 0,0 l/m 0,0 km/h (0 Bft) W-NW 292 -1,4 C -0,8 C 0,0 km/h (0 Bft)
02.12.2023 03:02 16,1 C -0,8 C 0,8 C 3,8 C 51 % 96 % 1005,9 hPa 0,0 l/m 0,0 km/h (0 Bft) W-NW 292 -1,4 C -0,8 C 0,0 km/h (0 Bft)
02.12.2023 03:00 16,1 C -0,8 C 0,8 C 3,8 C 51 % 96 % 1005,9 hPa 0,0 l/m 0,0 km/h (0 Bft) W-NW 292 -1,4 C -0,8 C 0,0 km/h (0 Bft)
02.12.2023 02:58 16,1 C -0,8 C 0,8 C 3,8 C 51 % 96 % 1005,9 hPa 0,0 l/m 0,0 km/h (0 Bft) W-NW 292 -1,4 C -0,8 C 0,0 km/h (0 Bft)
02.12.2023 02:56 16,2 C -0,8 C 0,8 C 3,8 C 51 % 96 % 1005,9 hPa 0,0 l/m 0,0 km/h (0 Bft) W-NW 292 -1,4 C -0,8 C 0,0 km/h (0 Bft)
02.12.2023 02:54 16,1 C -0,8 C 0,8 C 3,8 C 51 % 96 % 1005,9 hPa 0,0 l/m 0,0 km/h (0 Bft) W-NW 292 -1,4 C -0,8 C 0,0 km/h (0 Bft)
02.12.2023 02:52 16,2 C -0,8 C 0,8 C 3,8 C 51 % 96 % 1005,9 hPa 0,0 l/m 0,0 km/h (0 Bft) W-NW 292 -1,4 C -0,8 C 0,0 km/h (0 Bft)
02.12.2023 02:50 16,2 C -0,8 C 0,8 C 3,8 C 51 % 96 % 1005,9 hPa 0,0 l/m 0,0 km/h (0 Bft) W-NW 292 -1,4 C -0,8 C 0,0 km/h (0 Bft)
02.12.2023 02:48 16,2 C -0,8 C 0,8 C 3,8 C 51 % 96 % 1005,9 hPa 0,0 l/m 0,0 km/h (0 Bft) W-NW 292 -1,4 C -0,8 C 0,0 km/h (0 Bft)
02.12.2023 02:46 16,2 C -0,8 C 0,8 C 3,8 C 51 % 96 % 1005,9 hPa 0,0 l/m 0,0 km/h (0 Bft) W-NW 292 -1,4 C -0,8 C 0,0 km/h (0 Bft)
02.12.2023 02:44 16,2 C -0,8 C 0,8 C 3,8 C 51 % 96 % 1005,9 hPa 0,0 l/m 0,0 km/h (0 Bft) W-NW 292 -1,4 C -0,8 C 0,0 km/h (0 Bft)
02.12.2023 02:42 16,2 C -0,8 C 0,8 C 3,8 C 51 % 96 % 1005,9 hPa 0,0 l/m 0,0 km/h (0 Bft) W-NW 292 -1,4 C -0,8 C 0,0 km/h (0 Bft)
02.12.2023 02:40 16,2 C -0,8 C 0,8 C 3,8 C 51 % 96 % 1005,9 hPa 0,0 l/m 0,0 km/h (0 Bft) W-NW 292 -1,4 C -0,8 C 0,0 km/h (0 Bft)
02.12.2023 02:38 16,2 C -0,8 C 0,8 C 3,8 C 51 % 96 % 1005,9 hPa 0,0 l/m 0,0 km/h (0 Bft) W-NW 292 -1,4 C -0,8 C 0,0 km/h (0 Bft)
02.12.2023 02:36 16,2 C -0,8 C 0,8 C 3,8 C 51 % 96 % 1005,9 hPa 0,0 l/m 0,0 km/h (0 Bft) W-NW 292 -1,4 C -0,8 C 0,0 km/h (0 Bft)
02.12.2023 02:34 16,2 C -0,7 C 0,8 C 3,8 C 51 % 96 % 1005,9 hPa 0,0 l/m 0,0 km/h (0 Bft) W-NW 292 -1,3 C -0,7 C 0,0 km/h (0 Bft)
02.12.2023 02:32 16,2 C -0,7 C 0,8 C 3,8 C 51 % 96 % 1005,9 hPa 0,0 l/m 0,0 km/h (0 Bft) W-NW 292 -1,3 C -0,7 C 0,0 km/h (0 Bft)
02.12.2023 02:30 16,1 C -0,7 C 0,8 C 3,8 C 51 % 96 % 1005,9 hPa 0,0 l/m 0,0 km/h (0 Bft) W-NW 292 -1,3 C -0,7 C 0,0 km/h (0 Bft)
02.12.2023 02:28 16,1 C -0,7 C 0,8 C 3,8 C 51 % 96 % 1005,9 hPa 0,0 l/m 0,0 km/h (0 Bft) W-NW 292 -1,3 C -0,7 C 0,0 km/h (0 Bft)
02.12.2023 02:26 16,1 C -0,7 C 0,8 C 3,8 C 51 % 96 % 1005,9 hPa 0,0 l/m 0,0 km/h (0 Bft) W-NW 292 -1,3 C -0,7 C 0,0 km/h (0 Bft)
02.12.2023 02:24 16,1 C -0,7 C 0,8 C 3,8 C 51 % 96 % 1005,9 hPa 0,0 l/m 0,0 km/h (0 Bft) W-NW 292 -1,3 C -0,7 C 0,0 km/h (0 Bft)
02.12.2023 02:22 16,1 C -0,7 C 0,8 C 3,8 C 51 % 96 % 1005,9 hPa 0,0 l/m 0,0 km/h (0 Bft) W-NW 292 -1,3 C -0,7 C 0,0 km/h (0 Bft)
02.12.2023 02:20 16,1 C -0,7 C 0,8 C 3,8 C 51 % 96 % 1005,9 hPa 0,0 l/m 0,0 km/h (0 Bft) W-NW 292 -1,3 C -0,7 C 0,0 km/h (0 Bft)
02.12.2023 02:18 16,1 C -0,7 C 0,8 C 3,8 C 51 % 96 % 1005,9 hPa 0,0 l/m 0,0 km/h (0 Bft) W-NW 292 -1,3 C -0,7 C 0,0 km/h (0 Bft)
02.12.2023 02:16 16,1 C -0,7 C 0,8 C 3,8 C 51 % 96 % 1005,9 hPa 0,0 l/m 0,0 km/h (0 Bft) W-NW 292 -1,3 C -0,7 C 0,0 km/h (0 Bft)
02.12.2023 02:14 16,1 C -0,7 C 0,8 C 3,8 C 51 % 96 % 1005,9 hPa 0,0 l/m 0,0 km/h (0 Bft) W-NW 292 -1,3 C -0,7 C 0,0 km/h (0 Bft)
02.12.2023 02:12 16,1 C -0,7 C 0,8 C 3,8 C 51 % 96 % 1005,9 hPa 0,0 l/m 0,0 km/h (0 Bft) W-NW 292 -1,3 C -0,7 C 0,0 km/h (0 Bft)
02.12.2023 02:10 16,1 C -0,7 C 0,8 C 3,8 C 51 % 96 % 1005,9 hPa 0,0 l/m 0,0 km/h (0 Bft) W-NW 292 -1,3 C -0,7 C 0,0 km/h (0 Bft)
02.12.2023 02:08 16,1 C -0,7 C 0,8 C 3,8 C 51 % 96 % 1005,9 hPa 0,0 l/m 0,0 km/h (0 Bft) W-NW 292 -1,3 C -0,7 C 0,0 km/h (0 Bft)
02.12.2023 02:06 16,1 C -0,7 C 0,8 C 3,8 C 51 % 96 % 1005,9 hPa 0,0 l/m 0,0 km/h (0 Bft) W-NW 292 -1,3 C -0,7 C 0,0 km/h (0 Bft)
02.12.2023 02:04 16,1 C -0,7 C 0,8 C 3,8 C 51 % 96 % 1005,9 hPa 0,0 l/m 0,0 km/h (0 Bft) W-NW 292 -1,3 C -0,7 C 0,0 km/h (0 Bft)
02.12.2023 02:02 16,1 C -0,7 C 0,8 C 3,8 C 51 % 96 % 1005,9 hPa 0,0 l/m 0,0 km/h (0 Bft) W-NW 292 -1,3 C -0,7 C 0,0 km/h (0 Bft)
02.12.2023 02:00 16,1 C -0,7 C 0,8 C 3,8 C 51 % 96 % 1005,9 hPa 0,0 l/m 0,0 km/h (0 Bft) W-NW 292 -1,3 C -0,7 C 0,0 km/h (0 Bft)
02.12.2023 01:58 16,1 C -0,7 C 0,8 C 3,8 C 51 % 96 % 1005,9 hPa 0,0 l/m 0,0 km/h (0 Bft) W-NW 292 -1,3 C -0,7 C 0,0 km/h (0 Bft)
02.12.2023 01:56 16,1 C -0,7 C 0,8 C 3,8 C 51 % 96 % 1005,9 hPa 0,0 l/m 0,0 km/h (0 Bft) W-NW 292 -1,3 C -0,7 C 0,0 km/h (0 Bft)
02.12.2023 01:54 16,2 C -0,7 C 0,8 C 3,8 C 51 % 96 % 1005,9 hPa 0,0 l/m 0,0 km/h (0 Bft) W-NW 292 -1,3 C -0,7 C 0,0 km/h (0 Bft)
02.12.2023 01:52 16,2 C -0,7 C 0,8 C 3,8 C 51 % 96 % 1005,9 hPa 0,0 l/m 0,0 km/h (0 Bft) W-NW 292 -1,3 C -0,7 C 0,0 km/h (0 Bft)
02.12.2023 01:50 16,2 C -0,7 C 0,8 C 3,8 C 51 % 96 % 1005,7 hPa 0,0 l/m 0,0 km/h (0 Bft) W-NW 292 -1,3 C -0,7 C 0,0 km/h (0 Bft)
02.12.2023 01:48 16,2 C -0,7 C 0,8 C 3,8 C 51 % 96 % 1005,7 hPa 0,0 l/m 0,0 km/h (0 Bft) W-NW 292 -1,3 C -0,7 C 0,0 km/h (0 Bft)
02.12.2023 01:46 16,2 C -0,7 C 0,8 C 3,8 C 51 % 96 % 1005,7 hPa 0,0 l/m 0,0 km/h (0 Bft) W-NW 292 -1,3 C -0,7 C 0,0 km/h (0 Bft)
02.12.2023 01:44 16,2 C -0,7 C 0,8 C 3,8 C 51 % 96 % 1005,7 hPa 0,0 l/m 0,0 km/h (0 Bft) W-NW 292 -1,3 C -0,7 C 0,0 km/h (0 Bft)
02.12.2023 01:42 16,2 C -0,7 C 0,8 C 3,8 C 51 % 96 % 1005,7 hPa 0,0 l/m 0,0 km/h (0 Bft) W-NW 292 -1,3 C -0,7 C 0,0 km/h (0 Bft)
02.12.2023 01:40 16,2 C -0,7 C 0,8 C 3,8 C 51 % 96 % 1005,7 hPa 0,0 l/m 0,0 km/h (0 Bft) W-NW 292 -1,3 C -0,7 C 0,0 km/h (0 Bft)
02.12.2023 01:38 16,3 C -0,7 C 0,8 C 3,8 C 51 % 96 % 1005,7 hPa 0,0 l/m 0,0 km/h (0 Bft) W-NW 292 -1,3 C -0,7 C 0,0 km/h (0 Bft)
02.12.2023 01:36 16,3 C -0,7 C 0,8 C 3,8 C 51 % 96 % 1005,7 hPa 0,0 l/m 0,0 km/h (0 Bft) W-NW 292 -1,3 C -0,7 C 0,0 km/h (0 Bft)
02.12.2023 01:34 16,3 C -0,7 C 0,8 C 3,8 C 51 % 96 % 1005,7 hPa 0,0 l/m 0,0 km/h (0 Bft) W-NW 292 -1,3 C -0,7 C 0,0 km/h (0 Bft)
02.12.2023 01:32 16,3 C -0,7 C 0,8 C 3,8 C 51 % 96 % 1005,7 hPa 0,0 l/m 0,0 km/h (0 Bft) W-NW 292 -1,3 C -0,7 C 0,0 km/h (0 Bft)
02.12.2023 01:30 16,2 C -0,7 C 0,8 C 3,8 C 51 % 96 % 1006,0 hPa 0,0 l/m 0,0 km/h (0 Bft) W-NW 292 -1,3 C -0,7 C 0,0 km/h (0 Bft)
02.12.2023 01:28 16,2 C -0,7 C 0,8 C 3,8 C 51 % 96 % 1006,0 hPa 0,0 l/m 0,0 km/h (0 Bft) W-NW 292 -1,3 C -0,7 C 0,0 km/h (0 Bft)
02.12.2023 01:26 16,4 C -0,7 C 0,8 C 3,8 C 51 % 96 % 1006,0 hPa 0,0 l/m 0,0 km/h (0 Bft) W-NW 292 -1,3 C -0,7 C 0,0 km/h (0 Bft)
02.12.2023 01:24 16,4 C -0,7 C 0,8 C 3,8 C 51 % 96 % 1006,0 hPa 0,0 l/m 0,0 km/h (0 Bft) W-NW 292 -1,3 C -0,7 C 0,0 km/h (0 Bft)
02.12.2023 01:22 16,4 C -0,7 C 0,8 C 3,8 C 51 % 96 % 1006,0 hPa 0,0 l/m 0,0 km/h (0 Bft) W-NW 292 -1,3 C -0,7 C 0,0 km/h (0 Bft)
02.12.2023 01:20 16,4 C -0,7 C 0,8 C 3,8 C 51 % 96 % 1006,0 hPa 0,0 l/m 0,0 km/h (0 Bft) W-NW 292 -1,3 C -0,7 C 0,0 km/h (0 Bft)
02.12.2023 01:18 16,4 C -0,7 C 0,8 C 3,8 C 51 % 96 % 1006,0 hPa 0,0 l/m 0,0 km/h (0 Bft) W-NW 292 -1,3 C -0,7 C 0,0 km/h (0 Bft)
02.12.2023 01:16 16,4 C -0,7 C 0,8 C 3,8 C 51 % 96 % 1006,0 hPa 0,0 l/m 0,0 km/h (0 Bft) W-NW 292 -1,3 C -0,7 C 0,0 km/h (0 Bft)
02.12.2023 01:14 16,4 C -0,7 C 0,8 C 3,8 C 51 % 96 % 1006,0 hPa 0,0 l/m 0,0 km/h (0 Bft) W-NW 292 -1,3 C -0,7 C 0,0 km/h (0 Bft)
02.12.2023 01:12 16,4 C -0,7 C 0,8 C 3,8 C 51 % 96 % 1006,0 hPa 0,0 l/m 0,0 km/h (0 Bft) W-NW 292 -1,3 C -0,7 C 0,0 km/h (0 Bft)
02.12.2023 01:10 16,4 C -0,7 C 0,8 C 3,8 C 51 % 96 % 1006,0 hPa 0,0 l/m 0,0 km/h (0 Bft) W-NW 292 -1,3 C -0,7 C 0,0 km/h (0 Bft)
02.12.2023 01:08 16,4 C -0,7 C 0,8 C 3,8 C 51 % 96 % 1006,0 hPa 0,0 l/m 0,0 km/h (0 Bft) W-NW 292 -1,3 C -0,7 C 0,0 km/h (0 Bft)
02.12.2023 01:06 16,4 C -0,7 C 0,8 C 3,8 C 51 % 96 % 1006,0 hPa 0,0 l/m 0,0 km/h (0 Bft) W-NW 292 -1,3 C -0,7 C 0,0 km/h (0 Bft)
02.12.2023 01:04 16,4 C -0,7 C 0,8 C 3,8 C 51 % 96 % 1006,0 hPa 0,0 l/m 0,0 km/h (0 Bft) W-NW 292 -1,3 C -0,7 C 0,0 km/h (0 Bft)
02.12.2023 01:02 16,4 C -0,7 C 0,8 C 3,8 C 51 % 96 % 1006,0 hPa 0,0 l/m 0,0 km/h (0 Bft) W-NW 292 -1,3 C -0,7 C 0,0 km/h (0 Bft)
02.12.2023 01:00 16,4 C -0,7 C 0,8 C 3,8 C 51 % 96 % 1006,0 hPa 0,0 l/m 0,0 km/h (0 Bft) W-NW 292 -1,3 C -0,7 C 0,0 km/h (0 Bft)
02.12.2023 00:58 16,4 C -0,7 C 0,8 C 3,8 C 51 % 96 % 1006,0 hPa 0,0 l/m 0,0 km/h (0 Bft) W-NW 292 -1,3 C -0,7 C 0,0 km/h (0 Bft)
02.12.2023 00:56 16,4 C -0,7 C 0,8 C 3,8 C 51 % 96 % 1006,0 hPa 0,0 l/m 0,0 km/h (0 Bft) W-NW 292 -1,3 C -0,7 C 0,0 km/h (0 Bft)
02.12.2023 00:54 16,4 C -0,7 C 0,8 C 3,8 C 51 % 96 % 1006,0 hPa 0,0 l/m 0,0 km/h (0 Bft) W-NW 292 -1,3 C -0,7 C 0,0 km/h (0 Bft)
02.12.2023 00:52 16,4 C -0,7 C 0,8 C 3,8 C 51 % 96 % 1006,0 hPa 0,1 l/m 0,0 km/h (0 Bft) W-NW 292 -1,3 C -0,7 C 0,0 km/h (0 Bft)
02.12.2023 00:50 16,4 C -0,5 C 0,8 C 3,8 C 51 % 96 % 1006,2 hPa 0,0 l/m 0,0 km/h (0 Bft) W-NW 292 -1,1 C -0,5 C 0,0 km/h (0 Bft)
02.12.2023 00:48 16,4 C -0,5 C 0,8 C 3,8 C 51 % 96 % 1006,2 hPa 0,0 l/m 0,0 km/h (0 Bft) W-NW 292 -1,1 C -0,5 C 0,0 km/h (0 Bft)
02.12.2023 00:46 16,4 C -0,5 C 0,8 C 3,8 C 51 % 96 % 1006,2 hPa 0,0 l/m 0,0 km/h (0 Bft) W-NW 292 -1,1 C -0,5 C 0,0 km/h (0 Bft)
02.12.2023 00:44 16,4 C -0,5 C 0,8 C 3,8 C 51 % 96 % 1006,2 hPa 0,0 l/m 0,0 km/h (0 Bft) W-NW 292 -1,1 C -0,5 C 0,0 km/h (0 Bft)
02.12.2023 00:42 16,4 C -0,5 C 0,8 C 3,8 C 51 % 96 % 1006,2 hPa 0,0 l/m 0,0 km/h (0 Bft) W-NW 292 -1,1 C -0,5 C 0,0 km/h (0 Bft)
02.12.2023 00:40 16,4 C -0,5 C 0,8 C 3,8 C 51 % 96 % 1006,2 hPa 0,0 l/m 0,0 km/h (0 Bft) W-NW 292 -1,1 C -0,5 C 0,0 km/h (0 Bft)
02.12.2023 00:38 16,4 C -0,5 C 0,8 C 3,8 C 51 % 96 % 1006,2 hPa 0,0 l/m 0,0 km/h (0 Bft) W-NW 292 -1,1 C -0,5 C 0,0 km/h (0 Bft)
02.12.2023 00:36 16,4 C -0,5 C 0,8 C 3,8 C 51 % 96 % 1006,2 hPa 0,0 l/m 0,0 km/h (0 Bft) W-NW 292 -1,1 C -0,5 C 0,0 km/h (0 Bft)
02.12.2023 00:34 16,4 C -0,5 C 0,8 C 3,8 C 51 % 96 % 1006,2 hPa 0,0 l/m 0,0 km/h (0 Bft) W-NW 292 -1,1 C -0,5 C 0,0 km/h (0 Bft)
02.12.2023 00:32 16,4 C -0,5 C 0,8 C 3,8 C 51 % 96 % 1006,2 hPa 0,0 l/m 0,0 km/h (0 Bft) W-NW 292 -1,1 C -0,5 C 0,0 km/h (0 Bft)
02.12.2023 00:30 16,4 C -0,5 C 0,8 C 3,8 C 51 % 96 % 1006,0 hPa 0,0 l/m 0,0 km/h (0 Bft) W-NW 292 -1,1 C -0,5 C 0,0 km/h (0 Bft)
02.12.2023 00:28 16,4 C -0,5 C 0,8 C 3,8 C 51 % 96 % 1006,0 hPa 0,0 l/m 0,0 km/h (0 Bft) W-NW 292 -1,1 C -0,5 C 0,0 km/h (0 Bft)
02.12.2023 00:26 16,4 C -0,5 C 0,8 C 3,8 C 51 % 96 % 1006,0 hPa 0,0 l/m 0,0 km/h (0 Bft) W-NW 292 -1,1 C -0,5 C 0,0 km/h (0 Bft)
02.12.2023 00:24 16,4 C -0,5 C 0,8 C 3,8 C 51 % 96 % 1006,0 hPa 0,0 l/m 0,0 km/h (0 Bft) W-NW 292 -1,1 C -0,5 C 0,0 km/h (0 Bft)
02.12.2023 00:22 16,4 C -0,5 C 0,8 C 3,8 C 51 % 96 % 1006,0 hPa 0,0 l/m 0,0 km/h (0 Bft) W-NW 292 -1,1 C -0,5 C 0,0 km/h (0 Bft)
02.12.2023 00:20 16,4 C -0,5 C 0,8 C 3,8 C 51 % 96 % 1006,0 hPa 0,0 l/m 0,0 km/h (0 Bft) W-NW 292 -1,1 C -0,5 C 0,0 km/h (0 Bft)
02.12.2023 00:18 16,4 C -0,5 C 0,8 C 3,8 C 51 % 96 % 1006,0 hPa 0,0 l/m 0,0 km/h (0 Bft) W-NW 292 -1,1 C -0,5 C 0,0 km/h (0 Bft)
02.12.2023 00:16 16,4 C -0,5 C 0,8 C 3,8 C 51 % 96 % 1006,0 hPa 0,0 l/m 0,0 km/h (0 Bft) W-NW 292 -1,1 C -0,5 C 0,0 km/h (0 Bft)
02.12.2023 00:14 16,4 C -0,5 C 0,8 C 3,8 C 51 % 96 % 1006,0 hPa 0,0 l/m 0,0 km/h (0 Bft) W-NW 292 -1,1 C -0,5 C 0,0 km/h (0 Bft)
02.12.2023 00:12 16,4 C -0,5 C 0,8 C 3,8 C 51 % 96 % 1006,0 hPa 0,0 l/m 0,0 km/h (0 Bft) W-NW 292 -1,1 C -0,5 C 0,0 km/h (0 Bft)
02.12.2023 00:10 16,4 C -0,5 C 0,8 C 3,8 C 51 % 96 % 1006,4 hPa 0,0 l/m 0,0 km/h (0 Bft) W-NW 292 -1,1 C -0,5 C 0,0 km/h (0 Bft)
02.12.2023 00:08 16,4 C -0,5 C 0,8 C 3,8 C 51 % 96 % 1006,4 hPa 0,0 l/m 0,0 km/h (0 Bft) W-NW 292 -1,1 C -0,5 C 0,0 km/h (0 Bft)
02.12.2023 00:06 16,4 C -0,5 C 0,8 C 3,8 C 51 % 96 % 1006,4 hPa 0,0 l/m 0,0 km/h (0 Bft) W-NW 292 -1,1 C -0,5 C 0,0 km/h (0 Bft)
02.12.2023 00:04 16,5 C -0,5 C 0,8 C 3,8 C 51 % 96 % 1006,4 hPa 0,0 l/m 0,0 km/h (0 Bft) W-NW 292 -1,1 C -0,5 C 0,0 km/h (0 Bft)
02.12.2023 00:02 16,5 C -0,5 C 0,8 C 3,8 C 51 % 96 % 1006,4 hPa 0,0 l/m 0,0 km/h (0 Bft) W-NW 292 -1,1 C -0,5 C 0,0 km/h (0 Bft)
02.12.2023 00:00 16,5 C -0,5 C 0,8 C 3,8 C 51 % 96 % 1006,4 hPa 0,0 l/m 0,0 km/h (0 Bft) W-NW 292 -1,1 C -0,5 C 0,0 km/h (0 Bft)
_ Min-Zeit 07:54 22:00 06:35 23:16 11:14 21:20 03:52 - 00:00 - - 22:00 22:00 00:00
Minimum _ 14,6 C -5,0 C -1,1 C 3,5 C 48 % 88 % 1005,5 hPa - 0,0 km/h (0 Bft) - - -6,7 C -5,0 C 0,0 km/h (0 Bft)
_ Max-Zeit 15:40 06:35 09:14 06:35 19:05 00:00 22:56 00:52 00:00 - - 00:00 06:35 00:00
Maximum _ 16,6 C -0,4 C 1,0 C 5,1 C 54 % 96 % 1022,1 hPa 0,1 l/m 0,0 km/h
W-NW (0 Bft)
- - -1,1 C -0,4 C 0,0 km/h
W-NW (0 Bft)
Durchschnitt _ 15,6 C -2,1 C 0,8 C 3,7 C 52 % 94 % 1011,5 hPa #0,1 l/m 0,0 km/h (0 Bft) - - - -3,0 C -2,1 C 0,0 km/h (0 Bft)